GEFSMW_500_meanwind_066.txt.gz
Wind_Speed
6 6 6 5 5 5 6 5 5 4 4 4 4 4 5 6 6 8 9 9 9 10 10 11 11 12 12 12 12 12 13 13 14 15 15 16 16 17 19 20 21 22 22
3 3 3 3 4 4 4 4 4 4 3 3 3 4 4 5 6 7 8 9 9 9 10 11 11 11 12 12 12 12 12 13 13 14 14 15 16 17 18 19 20 21 22
4 2 2 2 3 4 4 4 4 3 3 2 2 3 4 5 6 7 8 8 9 10 11 11 12 12 12 12 13 13 13 13 13 14 14 15 15 16 17 18 19 20 22
4 3 3 3 3 3 3 4 3 2 2 2 2 3 4 5 5 6 8 9 10 11 12 12 12 13 13 13 14 14 15 15 15 15 15 16 16 17 17 18 19 20 22
3 3 3 4 3 3 3 3 3 2 1 1 2 3 4 5 6 7 9 10 11 12 13 13 13 14 15 15 15 15 15 16 17 17 17 18 18 19 20 20 20 21 23
4 4 4 4 4 3 3 3 3 2 1 1 2 3 5 6 7 8 9 10 12 13 14 15 15 15 16 16 16 17 17 18 18 19 20 20 20 21 22 23 24 24 24
5 4 4 4 3 3 3 3 3 2 2 2 4 5 6 8 9 10 11 12 13 14 15 16 16 17 17 17 18 19 19 20 21 22 22 23 23 24 24 25 26 27 28
4 3 3 2 2 3 3 3 3 2 3 4 5 6 8 9 10 12 13 13 14 14 15 16 17 18 18 19 20 21 22 23 24 24 25 26 27 27 27 28 28 29 31
2 2 1 2 3 3 4 4 4 4 5 6 7 8 9 10 11 13 14 15 15 16 17 17 18 19 20 21 22 23 25 25 26 27 28 28 29 29 30 31 31 32 33
1 1 1 2 3 3 4 4 5 5 6 7 9 10 11 12 13 14 15 16 17 18 19 20 21 21 22 23 24 25 26 27 28 29 30 31 32 33 34 35 35 35 36
1 1 2 3 4 5 5 6 6 7 8 9 11 12 13 14 15 16 17 18 19 20 21 22 23 24 25 26 27 28 29 31 32 32 33 34 34 35 36 37 38 38 38
3 3 3 4 5 6 7 8 9 10 11 12 14 15 16 17 18 18 19 20 21 22 23 24 25 26 27 28 30 32 33 34 35 35 35 35 36 37 37 38 38 39 39
6 6 6 6 7 8 9 10 12 13 14 16 17 17 19 19 20 21 21 22 23 24 25 27 28 29 30 31 33 35 36 36 36 36 37 37 38 38 38 38 38 38 38
9 8 8 9 10 10 11 12 14 15 17 18 19 20 21 22 22 23 24 25 26 26 28 29 30 31 32 34 35 37 38 37 37 38 38 39 39 39 39 38 38 37 37
12 11 11 12 12 13 14 15 16 17 19 20 21 22 23 24 25 25 26 27 27 29 30 31 32 33 34 35 37 38 39 39 39 39 40 40 40 40 39 38 37 37 36
14 13 14 14 15 16 17 17 18 19 21 22 24 25 26 27 27 28 29 29 30 31 32 33 35 36 37 38 38 38 39 40 40 40 41 40 40 40 39 38 36 36 35
15 14 14 15 16 18 20 21 21 22 23 25 26 28 29 29 30 30 31 32 33 34 35 36 37 38 39 39 39 39 40 40 41 41 41 41 41 40 39 37 36 35 35
16 16 17 19 20 21 22 23 24 25 26 28 29 30 31 31 32 32 33 34 35 36 37 38 39 40 41 41 41 41 41 41 42 42 42 42 41 40 39 37 35 34 34
19 20 22 23 23 24 24 25 27 28 29 31 32 32 33 33 34 35 35 36 37 39 39 40 41 42 42 42 42 42 42 42 42 43 43 42 41 40 39 37 35 34 34
24 25 25 26 26 27 27 28 29 31 32 33 34 34 35 36 37 37 38 39 40 41 42 42 43 43 44 44 43 43 43 43 43 43 43 42 40 39 38 37 35 34 33
27 27 28 29 30 31 31 32 32 33 34 35 35 36 38 38 39 40 42 43 43 44 44 44 45 46 46 45 45 45 45 45 44 44 43 41 40 38 37 36 35 34 33
29 30 31 32 33 34 35 35 36 36 37 37 38 39 40 41 42 43 44 45 46 47 47 47 47 47 47 47 46 46 46 46 45 44 42 41 40 38 37 36 35 34 33
31 32 33 34 35 36 37 37 38 38 39 40 41 42 43 44 45 46 47 48 49 49 50 50 50 49 49 49 48 48 48 47 46 43 42 41 39 38 36 35 35 34 32
33 34 35 36 37 37 38 39 40 41 42 43 44 46 47 48 49 50 50 51 51 52 52 52 52 51 50 49 49 49 49 48 46 44 42 41 39 37 36 35 34 33 32
34 35 36 37 38 39 40 41 43 44 45 46 47 48 50 51 52 52 53 53 54 54 54 54 53 53 51 51 52 51 50 48 46 44 42 40 38 36 35 34 32 31 31
35 36 38 39 40 41 42 43 44 46 47 48 50 51 52 53 54 55 55 55 56 56 56 56 56 55 54 54 53 52 50 48 46 43 41 39 38 36 35 33 32 31 30

GEFSMW_500_meanwind_072.txt.gz
Wind_Speed
7 11 13 14 15 15 14 12 11 9 7 5 4 3 3 3 4 4 5 5 5 6 7 7 8 9 10 10 10 10 11 11 11 11 12 12 12 12 12 13 14 15 16
6 9 12 14 14 13 13 12 11 10 7 6 4 3 3 3 4 4 4 5 5 6 7 8 9 9 10 10 10 10 10 11 11 12 12 12 12 12 12 13 14 15 16
6 8 11 13 13 12 12 12 10 8 7 5 4 3 3 3 3 3 4 5 5 6 7 8 9 10 10 10 10 10 10 11 11 12 12 12 13 13 13 13 14 15 16
6 8 10 12 12 11 11 10 9 8 7 6 5 4 3 3 3 3 4 5 5 7 7 8 9 9 10 10 10 11 11 11 12 13 13 13 14 14 14 15 15 16 16
6 8 10 10 10 11 10 9 8 9 7 6 5 4 3 3 3 4 5 5 6 7 7 8 8 9 10 11 11 11 12 12 13 14 14 15 15 16 16 16 17 17 18
5 7 9 8 9 9 9 9 8 8 7 6 5 4 4 4 4 5 5 6 7 7 8 9 9 10 11 11 12 13 13 13 14 15 16 16 17 17 18 18 19 19 20
4 6 7 8 8 8 9 8 8 7 6 6 5 5 5 6 6 6 6 7 8 8 9 9 10 11 11 12 13 14 14 15 16 17 17 17 18 19 20 20 21 21 22
4 5 7 6 6 6 7 7 7 7 7 6 6 6 7 7 7 7 8 9 9 10 10 11 12 12 13 14 15 16 17 17 18 18 19 19 20 21 21 22 23 24 25
2 3 5 5 5 6 6 6 7 7 8 8 8 8 8 9 9 9 10 11 11 12 13 13 14 15 16 17 18 18 19 19 20 20 21 22 22 23 23 23 24 25 26
2 3 4 5 6 7 7 8 8 9 9 9 9 9 10 10 11 12 12 13 14 15 16 16 17 18 19 19 20 21 21 22 23 23 24 25 25 25 25 25 26 26 27
5 5 6 8 8 9 9 9 10 10 11 11 11 11 12 13 13 14 15 16 17 17 18 19 20 20 21 22 23 24 24 25 25 26 27 27 27 28 28 28 28 28 29
8 8 9 10 10 11 11 11 12 12 13 13 13 14 15 15 16 17 18 18 19 20 21 22 22 23 24 25 26 26 27 27 27 28 29 29 30 30 30 30 30 30 31
11 11 11 12 12 13 13 13 14 14 15 15 16 16 17 17 18 20 21 21 22 23 24 24 25 26 27 27 28 28 29 29 30 30 31 32 32 32 32 32 32 32 33
12 12 12 12 13 14 14 15 15 16 17 17 18 18 19 20 21 22 23 24 25 26 27 27 27 28 29 30 30 30 31 32 32 33 33 33 33 33 33 34 34 34 34
13 13 13 13 14 15 16 16 17 18 19 20 21 21 22 23 24 25 26 27 28 29 30 30 31 31 31 32 32 33 33 34 34 35 34 34 34 35 35 35 35 35 35
15 15 16 15 15 15 16 17 19 20 21 22 23 24 25 26 27 28 29 30 31 32 32 33 33 34 34 34 35 36 36 36 37 37 36 36 36 36 37 37 37 37 37
18 18 17 17 17 17 18 20 21 22 23 24 25 26 27 28 29 30 31 32 34 35 35 35 36 36 37 37 38 39 39 38 39 39 39 38 38 38 38 38 38 38 39
20 21 20 20 20 21 22 23 24 24 26 26 27 28 29 30 32 33 33 35 37 37 38 39 39 39 39 40 41 42 41 41 41 41 41 41 40 40 40 40 40 40 40
21 22 22 23 23 24 24 25 26 27 28 29 30 31 32 34 35 36 37 38 39 40 41 41 41 42 42 44 45 45 44 43 43 44 44 44 43 43 43 42 41 41 41
22 23 24 25 26 26 26 27 28 29 30 31 33 34 36 37 38 39 41 41 42 43 44 45 45 46 46 47 48 49 48 47 47 46 47 46 45 45 45 44 43 42 42
24 25 26 27 27 28 29 29 31 32 33 34 35 37 38 40 40 42 43 45 46 47 48 48 48 49 50 49 50 51 52 51 50 49 49 49 48 47 47 46 45 43 43
25 26 26 27 28 29 30 31 33 34 36 37 38 39 41 42 44 45 46 47 49 50 51 52 52 53 53 53 53 54 55 55 54 52 52 51 50 50 49 47 46 46 44
24 25 27 28 29 31 32 33 35 37 38 39 41 42 44 45 47 48 49 51 52 53 54 55 55 55 55 56 56 57 58 58 57 56 55 53 52 52 51 49 48 47 46
25 26 28 29 31 33 34 36 37 39 40 42 43 45 46 47 49 51 52 53 54 56 57 57 58 58 58 58 59 60 60 60 60 59 58 56 55 54 53 51 50 49 47
27 29 30 32 33 35 36 37 39 41 42 44 45 47 48 49 51 52 54 55 57 58 59 60 61 61 61 61 62 63 62 63 63 62 61 59 57 56 55 53 52 50 48
29 31 32 34 35 36 38 39 41 42 44 45 47 49 50 52 53 55 56 58 60 61 63 64 65 65 65 65 65 66 66 66 66 65 63 62 60 58 56 54 52 51 48

GEFSMW_500_meanwind_078.txt.gz
Wind_Speed
8 13 16 18 20 22 22 22 19 18 15 13 12 10 9 7 6 5 4 2 2 1 1 0 1 2 3 4 4 4 4 5 5 5 6 6 7 8 8 9 10 10 12
6 10 13 15 18 20 19 18 17 16 14 14 12 10 9 8 6 5 4 3 2 2 1 0 1 2 3 4 4 4 4 5 5 5 6 6 7 8 8 9 10 10 11
4 8 11 12 15 16 17 17 17 16 15 13 12 11 9 8 7 6 5 4 3 2 1 1 1 2 3 4 4 4 5 5 5 5 6 7 8 8 9 9 10 11 12
2 6 9 11 13 16 16 16 17 16 15 13 12 11 9 8 7 6 5 4 4 3 2 1 1 1 2 3 4 4 5 5 6 6 7 8 9 10 10 10 11 11 12
2 4 7 10 12 13 14 15 16 15 14 13 11 10 9 8 7 6 6 5 4 3 3 2 2 3 3 4 4 5 6 6 7 7 8 9 10 10 11 11 12 12 13
1 4 6 9 10 11 13 14 14 13 12 12 11 10 9 8 7 7 6 5 5 4 4 4 4 5 5 6 6 7 7 8 9 9 10 10 11 12 12 13 14 14 15
1 3 5 7 9 10 12 13 13 12 12 11 11 10 9 8 8 7 7 6 6 6 6 6 7 7 8 8 9 9 10 10 11 12 12 13 14 14 15 15 16 16 17
2 1 4 5 7 10 11 13 13 12 11 11 11 10 10 9 9 9 8 8 8 9 9 9 9 10 11 11 11 12 12 13 13 14 14 15 16 17 18 18 19 19 19
1 1 3 4 6 7 10 12 13 12 11 11 11 11 11 11 11 10 10 10 11 12 12 12 13 13 13 14 15 15 16 16 16 17 17 18 18 19 19 20 21 21 22
2 2 3 4 6 7 9 11 11 11 11 11 11 12 12 13 13 13 13 13 14 15 15 16 16 17 17 17 18 19 19 19 19 19 20 20 20 20 21 22 22 23 24
4 3 4 6 7 8 9 10 11 11 12 12 13 14 14 15 15 16 16 17 18 18 19 19 20 20 20 21 21 22 22 22 22 23 23 23 23 23 24 24 25 25 25
7 6 6 7 8 9 11 12 13 13 14 15 15 16 17 17 18 19 19 20 21 22 22 23 23 23 23 24 24 24 25 25 25 25 25 26 26 26 26 26 27 27 27
10 10 10 9 10 11 12 13 15 16 16 17 18 19 19 20 21 22 22 23 24 25 25 26 26 26 26 26 27 27 27 28 28 28 28 28 28 28 28 28 28 28 28
12 12 12 12 13 14 14 15 16 17 18 19 20 21 22 23 24 24 25 26 26 27 28 28 29 29 28 29 29 29 30 30 30 30 29 30 30 31 31 31 31 31 31
14 14 14 15 16 16 17 17 18 18 20 21 22 24 25 25 26 27 28 28 29 30 31 31 31 31 31 31 31 32 32 32 32 32 32 32 32 33 33 34 33 33 33
16 16 17 18 19 19 20 20 21 21 22 23 24 25 26 27 28 29 29 30 31 32 33 32 32 33 33 33 34 34 34 34 34 34 34 35 35 35 36 36 36 36 36
20 20 20 21 22 22 23 24 24 24 24 25 26 27 28 29 30 31 31 32 33 34 34 34 34 34 35 36 37 37 37 37 36 37 38 38 39 38 39 39 39 39 39
24 24 25 25 25 25 26 27 28 28 28 28 29 30 31 32 33 33 34 35 36 36 37 37 37 37 38 39 40 41 42 41 41 41 42 42 42 42 43 43 42 42 42
26 27 28 28 28 28 29 30 31 32 32 33 33 33 34 35 36 36 37 38 39 39 40 40 41 41 42 42 43 45 45 46 46 46 46 46 46 46 47 47 46 46 45
26 28 29 29 30 30 31 33 34 34 34 35 36 36 36 37 38 39 40 41 42 42 43 43 44 45 45 46 47 49 50 51 50 50 50 50 49 50 51 51 51 49 48
26 28 29 30 31 32 32 33 34 35 35 35 36 37 37 39 40 41 42 43 44 44 45 47 48 48 49 50 51 53 53 54 54 54 53 53 53 53 54 55 54 53 52
26 27 29 31 33 33 32 33 34 35 36 36 37 39 39 40 42 43 44 44 45 47 48 49 51 52 52 53 54 56 57 57 58 57 57 57 57 57 57 58 57 57 57
27 28 29 31 32 32 32 33 33 34 36 38 39 40 40 42 43 44 45 46 47 49 50 52 53 54 55 56 57 58 60 61 62 62 62 62 62 62 61 61 60 60 60
28 29 29 30 31 31 31 33 34 35 36 37 38 39 41 42 44 45 47 48 50 51 52 54 56 57 58 60 61 63 64 65 65 66 66 66 65 65 65 65 64 63 63
28 29 29 30 31 32 33 34 35 36 38 39 40 41 42 44 45 47 48 50 52 54 56 58 59 61 62 64 66 67 68 69 69 70 70 69 69 69 68 68 67 66 65
30 30 31 32 32 33 35 36 37 38 39 41 42 43 44 46 48 49 51 53 56 58 60 62 63 65 66 68 69 70 70 70 71 71 71 70 69 69 68 68 67 66 66

GEFSMW_500_meanwind_084.txt.gz
Wind_Speed
9 9 10 13 15 17 20 20 20 19 18 16 15 14 12 10 9 8 7 6 4 4 3 3 2 1 1 1 2 3 3 3 4 4 4 4 4 5 5 6 6 7 7
10 7 8 9 13 16 17 18 18 18 18 17 15 13 12 10 9 8 7 6 5 4 4 3 2 1 1 1 2 3 3 4 4 4 4 5 5 6 6 6 6 7 7
9 6 6 7 10 13 16 16 17 17 17 16 14 13 11 10 9 9 8 7 6 5 4 3 2 1 0 1 2 3 3 4 4 5 5 5 6 6 7 7 7 8 8
9 5 4 6 8 11 14 15 15 15 15 14 14 12 11 11 10 10 9 8 6 5 5 4 3 2 1 1 2 2 3 4 4 5 6 6 7 7 8 8 9 9 10
9 5 2 4 5 8 11 13 13 13 13 13 13 13 12 11 10 10 10 8 7 6 5 5 4 3 3 3 4 4 4 5 5 6 7 8 9 9 9 10 10 11 11
9 5 2 1 4 6 8 10 12 13 13 13 13 12 12 12 11 10 10 8 8 7 7 6 5 5 5 6 6 7 7 7 8 9 9 10 11 11 11 12 12 13 13
8 6 5 2 1 4 7 9 10 11 12 13 12 12 12 12 11 11 10 9 8 8 8 7 8 8 8 9 9 10 10 11 11 12 12 13 13 13 14 14 15 15 15
8 6 4 3 1 3 5 7 9 10 11 12 12 12 12 11 11 11 10 10 10 10 9 9 10 10 11 11 12 13 13 14 14 15 15 16 16 16 17 17 18 18 17
7 5 3 3 1 1 3 5 7 9 10 11 11 11 11 11 11 11 11 11 11 11 11 12 12 13 13 14 15 15 16 17 18 18 18 19 19 20 20 20 20 21 20
6 5 3 2 1 1 2 5 7 9 10 10 10 11 11 12 12 12 12 13 13 13 14 14 15 15 16 17 17 18 19 20 20 21 21 22 22 23 23 24 24 24 24
7 6 5 4 3 3 4 6 7 9 10 11 11 11 12 12 12 13 13 14 15 15 16 17 17 18 19 20 20 21 22 23 23 24 24 24 25 25 26 26 27 27 27
8 7 7 6 5 5 5 6 8 8 10 11 12 12 13 13 14 14 15 16 17 18 18 19 20 21 22 22 23 24 24 25 25 26 26 26 27 27 28 28 29 29 30
10 9 9 8 7 8 7 8 8 9 10 11 12 14 14 15 16 17 18 18 19 20 21 22 22 23 24 24 25 26 26 27 27 28 28 29 29 29 30 30 31 32 32
13 12 11 10 10 11 11 11 12 12 12 13 14 16 17 18 18 19 20 21 22 23 24 24 25 25 26 27 27 28 29 29 30 30 31 31 31 32 33 33 34 34 34
14 14 14 13 12 12 13 14 15 15 15 16 17 18 18 19 20 22 23 23 24 25 26 26 27 27 28 29 30 31 31 31 32 32 33 34 34 35 36 36 36 37 37
16 15 16 16 16 16 15 16 17 18 19 19 21 21 22 23 23 24 25 26 27 27 28 28 29 30 30 31 32 33 33 34 34 35 35 36 36 37 38 39 40 40 40
17 17 17 18 19 19 20 20 20 21 22 23 24 25 26 27 28 28 29 30 31 31 31 31 32 32 33 34 35 36 37 37 37 38 39 39 40 41 41 42 43 43 44
19 19 19 20 21 22 23 24 25 25 26 27 28 28 29 30 30 31 33 34 35 35 35 34 35 36 37 37 37 39 39 40 40 41 42 43 43 44 45 46 46 46 47
21 21 22 22 22 24 25 27 28 29 30 31 31 32 32 32 32 33 35 36 37 38 37 37 38 39 39 40 41 41 42 43 43 43 44 45 46 47 48 49 50 49 49
23 23 24 23 24 25 26 28 29 30 32 33 34 35 35 35 35 36 37 37 37 38 38 39 40 40 41 41 42 44 45 45 46 46 47 48 49 49 51 52 52 53 52
24 24 25 25 26 27 28 29 30 30 31 33 34 35 36 37 37 36 37 37 39 39 40 40 41 42 43 43 43 45 46 47 48 49 50 52 53 54 55 56 57 57 57
25 26 26 27 27 28 29 30 31 31 32 33 34 36 36 36 36 36 37 38 38 39 40 41 42 43 44 45 46 47 49 50 52 53 55 57 58 59 60 61 61 62 63
27 27 28 28 28 29 30 31 32 32 33 33 34 35 36 36 36 36 36 37 38 39 40 42 43 45 47 48 50 51 53 55 56 58 59 61 62 63 64 65 65 66 66
27 27 28 28 29 30 31 31 32 33 34 34 34 35 35 35 36 37 38 39 40 41 42 44 45 47 49 52 53 55 57 59 61 62 63 64 65 66 66 67 67 68 68
29 29 30 31 31 31 32 33 33 34 34 35 35 35 36 37 37 38 39 41 42 43 45 47 49 51 52 54 57 59 61 62 64 65 65 66 66 66 67 67 67 67 67
29 30 31 32 32 33 34 35 35 35 36 37 37 37 38 39 40 41 42 43 45 47 49 51 53 55 56 58 59 61 62 63 64 64 64 63 64 64 63 63 62 62 63

GEFSMW_500_meanwind_090.txt.gz
Wind_Speed
13 11 7 4 5 8 12 15 15 17 16 16 15 15 14 12 11 11 10 9 8 8 8 7 6 5 4 3 2 2 2 1 1 1 2 2 2 2 2 2 2 2 2
14 10 7 2 3 7 10 13 14 16 16 16 15 15 14 13 12 11 11 11 10 9 9 8 7 6 5 4 3 2 2 2 2 2 2 2 2 2 2 2 2 2 3
13 12 8 3 2 5 9 10 12 15 16 16 15 15 14 14 12 12 12 12 11 10 9 9 8 7 5 5 4 3 2 2 2 2 2 1 1 2 2 2 2 3 3
13 11 7 3 1 5 7 10 12 14 15 16 15 15 15 14 13 13 13 12 11 11 10 9 8 7 6 5 4 3 2 1 1 0 0 1 1 2 2 2 3 3 3
12 9 6 3 1 3 6 9 12 14 15 15 15 15 15 14 13 13 13 12 12 11 11 10 9 8 8 6 5 4 3 3 2 2 2 2 3 3 3 4 4 4 5
11 8 5 3 1 2 5 8 12 13 14 15 15 14 15 15 14 14 13 13 13 12 12 11 10 10 9 8 7 6 6 5 5 5 5 5 5 5 6 6 6 7 7
8 7 6 3 2 3 5 8 10 12 14 14 14 15 15 15 15 14 14 14 14 13 12 12 11 11 11 10 9 9 9 9 8 8 8 8 8 8 9 9 10 10 10
6 6 5 4 3 3 4 7 10 11 12 13 14 15 15 15 15 14 15 15 15 14 13 13 13 12 12 12 12 12 12 12 12 12 12 12 12 12 12 13 13 13 13
6 5 5 4 3 3 4 6 9 11 12 13 14 14 15 16 15 15 16 16 16 15 15 15 14 14 15 14 14 14 14 14 14 14 14 15 15 15 15 16 16 16 16
4 3 3 3 2 2 3 5 7 9 10 12 13 14 15 15 15 15 16 16 16 17 17 16 17 17 17 17 17 17 17 17 17 17 17 18 18 18 19 19 19 19 19
4 3 2 1 1 0 2 2 4 6 9 11 11 13 14 15 16 16 16 16 17 18 18 18 19 19 19 19 20 20 20 20 20 20 21 21 21 21 22 22 22 22 22
5 4 3 2 2 2 2 4 5 6 8 9 11 13 14 15 16 17 18 18 19 20 20 20 20 21 21 22 22 23 23 23 23 23 23 24 24 25 25 25 25 25 25
6 5 4 4 4 4 4 5 6 7 8 10 11 12 13 14 16 18 19 20 20 21 21 22 22 23 24 24 24 25 25 25 25 25 26 26 27 28 28 29 29 29 29
7 5 4 5 5 6 5 6 7 8 9 10 11 13 14 15 16 18 19 21 21 22 23 24 25 26 26 26 27 27 27 28 28 28 29 29 30 30 31 32 32 32 32
8 6 6 6 6 7 7 8 9 10 11 12 13 14 15 16 18 19 20 22 23 24 26 26 26 27 28 29 29 29 29 30 30 31 31 32 33 33 34 35 35 35 35
9 8 8 7 8 9 10 10 11 12 13 14 14 16 17 18 20 21 22 24 26 27 28 28 29 30 31 32 33 33 33 33 33 34 34 35 36 37 37 38 38 38 39
10 10 10 10 10 11 11 12 13 15 15 16 17 18 20 21 22 24 25 26 27 29 31 32 32 33 34 34 35 36 36 36 36 36 37 37 39 40 41 41 42 42 42
11 11 12 12 13 13 14 15 16 17 18 19 20 22 22 24 26 26 27 29 30 30 31 32 34 35 34 34 35 36 36 37 38 39 40 41 42 42 43 43 44 44 44
13 13 13 14 14 15 16 18 19 20 21 21 23 24 25 26 27 28 29 29 31 31 33 34 34 35 35 36 36 36 37 38 39 40 40 41 42 42 44 45 45 45 46
15 15 15 16 17 17 18 19 21 22 23 23 24 26 27 27 28 29 30 31 32 33 34 34 33 34 35 37 38 39 39 40 41 42 42 42 43 43 45 46 47 48 49
18 18 18 18 19 19 20 21 22 24 25 26 26 27 27 28 30 30 30 31 32 32 34 35 35 37 37 38 39 40 41 42 43 44 44 45 46 47 48 49 51 52 53
19 19 19 20 20 21 22 23 24 25 26 28 28 29 30 30 31 33 34 33 34 35 36 37 38 38 39 39 40 41 42 43 44 46 47 48 49 51 52 54 56 57 58
19 20 21 21 22 23 24 25 26 27 28 29 30 31 32 33 34 35 36 36 36 36 37 38 39 40 41 41 42 43 44 46 47 48 50 51 52 54 56 58 60 61 62
21 22 22 23 23 24 26 27 28 29 30 31 32 33 34 35 35 36 37 37 37 38 39 40 41 42 43 44 45 46 48 49 50 52 53 55 56 58 59 60 62 63 64
21 21 22 23 24 25 26 28 29 30 31 32 33 34 35 35 36 37 38 39 39 40 41 42 44 45 46 48 49 51 52 53 54 56 57 58 59 60 61 62 62 62 62
21 22 23 24 25 26 27 29 30 31 32 33 34 35 36 37 38 39 39 40 41 43 44 45 46 48 49 51 52 54 55 56 57 58 58 59 59 59 60 59 59 59 59

GEFSMW_500_meanwind_096.txt.gz
Wind_Speed
13 10 8 6 6 10 14 16 18 19 20 20 20 19 19 18 17 14 12 11 10 10 9 8 7 6 5 4 3 2 2 1 1 1 1 1 1 1 1 0 0 1 1
13 11 9 5 5 9 13 16 18 19 19 19 20 20 20 18 17 15 13 12 12 11 11 9 8 7 6 5 4 2 2 1 1 1 1 1 1 1 1 1 1 1 1
12 12 9 6 5 8 11 16 19 20 20 20 20 20 19 18 16 15 14 13 13 13 12 10 9 8 6 5 5 3 3 2 1 1 1 1 1 2 2 2 2 2 2
11 10 9 6 4 7 10 14 18 19 20 20 20 20 20 18 16 15 14 13 14 14 12 11 10 9 7 6 6 5 4 3 3 2 2 2 2 3 3 3 3 3 3
11 9 8 5 3 6 9 12 15 17 18 18 19 20 19 18 16 15 15 15 15 14 13 12 11 10 9 8 7 7 6 5 5 4 4 4 4 5 5 5 6 6 6
10 8 6 3 2 4 8 11 14 17 18 18 18 19 18 17 16 15 15 15 14 14 14 13 12 11 10 10 9 9 8 8 7 7 7 7 7 8 8 8 9 8 8
10 7 5 3 1 4 7 10 13 16 17 17 18 17 17 16 15 15 15 14 14 14 14 13 13 12 12 11 11 11 11 11 10 10 11 11 11 11 11 11 12 12 12
8 5 3 2 1 2 5 8 12 14 16 17 18 16 16 15 14 14 15 14 14 14 14 14 14 13 13 13 13 13 13 13 14 14 14 14 14 15 14 15 15 15 16
8 5 3 2 1 2 4 6 9 12 14 15 17 16 15 15 15 15 15 14 15 15 15 15 15 15 15 15 16 16 16 16 17 17 17 17 18 18 18 18 19 19 19
8 6 4 2 1 1 3 5 7 10 12 13 14 14 14 14 14 15 15 16 16 16 16 17 17 17 17 18 18 18 19 19 20 20 21 21 21 21 21 21 22 22 22
7 5 4 2 1 2 3 4 6 7 10 12 13 13 14 14 14 16 16 17 17 17 18 19 19 20 20 20 21 21 22 22 23 23 24 24 24 25 25 25 25 25 25
6 6 4 4 3 3 3 4 5 6 8 11 12 13 14 15 16 17 18 18 19 19 20 20 21 22 23 23 24 24 25 26 26 27 27 28 28 28 28 28 28 28 28
7 7 6 5 5 5 4 4 5 7 8 9 11 13 14 15 16 18 19 19 20 21 21 22 23 24 25 26 26 27 27 29 30 30 30 31 31 32 32 32 32 32 32
10 9 8 7 6 6 6 6 6 8 8 9 10 11 13 14 16 17 18 20 21 22 23 24 25 26 26 27 29 30 31 32 33 33 34 35 34 34 34 35 35 36 36
11 11 10 10 9 8 8 8 8 8 8 9 10 12 13 14 16 18 19 20 22 23 24 26 27 28 29 30 31 33 34 35 36 37 37 37 37 37 37 38 38 39 39
11 11 11 12 12 12 11 11 11 10 11 12 13 14 15 16 17 18 19 20 22 24 25 27 29 31 32 33 34 35 36 38 38 39 40 40 40 41 41 41 42 42 43
13 13 13 14 14 14 13 13 13 13 14 14 15 15 16 17 18 19 21 22 24 26 27 29 31 32 34 35 36 38 39 40 41 42 43 43 43 43 44 45 45 45 46
16 15 15 15 15 15 15 15 15 15 15 17 18 18 19 20 20 22 23 25 27 28 29 31 32 34 35 36 37 38 40 41 43 44 45 45 46 46 46 47 48 49 49
18 17 16 16 16 16 16 16 16 17 18 18 19 20 21 22 23 25 26 28 29 31 32 33 34 35 36 36 38 39 40 42 43 44 45 45 46 46 48 49 49 50 51
20 19 17 17 17 17 17 18 18 19 19 20 21 22 23 24 25 27 28 30 31 33 33 35 36 37 38 39 41 42 43 44 45 45 45 46 47 48 49 50 50 50 51
22 21 19 18 18 18 18 19 20 21 22 23 24 24 25 27 27 29 30 31 32 33 34 36 37 39 40 42 42 42 43 44 46 46 47 48 49 49 50 50 51 51 52
24 23 22 21 20 20 20 21 22 23 23 24 26 26 27 29 30 30 32 33 34 35 35 37 38 40 41 42 42 42 43 44 45 46 48 49 50 51 52 53 54 55 56
27 25 23 23 22 22 23 23 24 25 26 27 28 29 29 30 31 33 34 35 36 36 37 38 39 41 42 43 44 44 45 47 48 49 50 51 52 53 55 56 57 58 60
25 25 24 24 24 24 24 25 25 26 27 29 30 30 31 32 33 35 36 37 37 39 40 41 42 44 45 46 47 48 49 50 51 52 52 53 55 56 57 58 60 61 62
27 26 26 26 26 26 26 26 27 27 28 30 31 32 33 34 35 37 38 39 40 42 43 44 46 47 48 49 50 51 52 52 53 54 55 56 57 58 59 60 61 62 62
26 27 26 26 25 25 26 27 27 28 30 31 32 34 35 36 37 39 40 42 43 45 46 47 48 49 50 51 52 53 54 54 54 55 55 56 57 58 58 58 58 59 59

GEFSMW_500_meanwind_102.txt.gz
Wind_Speed
14 12 11 10 8 7 9 13 17 19 21 22 21 20 20 19 17 16 15 14 12 11 10 9 8 7 6 5 4 4 3 3 2 2 2 1 1 1 2 2 2 2 3
13 12 11 9 7 8 9 13 16 19 20 21 21 21 21 19 17 17 15 14 13 12 11 10 9 8 7 6 5 5 4 3 3 3 2 2 2 2 2 3 2 3 3
12 11 10 8 7 7 9 12 15 17 19 20 21 21 20 19 17 17 16 15 14 13 12 11 11 9 8 7 6 5 5 4 4 3 3 3 2 3 3 3 4 4 4
12 11 10 9 8 8 9 12 15 16 18 20 20 20 19 19 18 17 16 16 14 13 13 12 12 10 9 8 7 7 6 6 5 4 4 4 3 3 4 4 5 5 6
11 11 10 9 8 7 9 11 14 16 17 19 20 20 20 19 19 17 17 16 16 15 14 13 13 12 11 10 9 8 8 7 6 6 6 5 5 5 6 6 7 8 8
10 10 10 9 7 6 8 10 13 15 17 18 19 20 20 20 19 18 17 17 16 15 14 14 13 13 12 11 11 10 9 9 8 8 8 8 8 8 9 9 9 10 10
10 9 9 8 6 5 6 9 11 13 16 18 19 19 19 19 19 18 17 17 15 15 15 15 14 14 13 13 12 12 11 11 11 11 11 11 11 11 12 12 12 13 13
10 9 8 8 6 4 5 7 10 13 16 17 17 18 17 17 18 17 17 16 15 15 15 15 15 15 15 14 14 14 13 13 13 14 14 14 14 15 15 15 16 16 17
10 8 7 7 6 3 2 4 8 12 14 16 16 16 16 17 17 17 17 16 16 15 15 15 16 16 16 15 16 16 16 16 16 16 17 17 17 18 18 18 19 20 20
9 8 6 5 5 3 2 3 6 10 12 13 14 15 16 17 17 17 17 16 16 16 15 15 16 17 17 18 18 19 19 19 19 20 20 20 21 21 22 22 23 24 24
9 8 6 5 4 3 1 2 3 6 9 11 13 15 16 17 17 17 17 17 17 16 16 16 17 18 19 19 20 21 21 21 22 22 23 24 24 24 25 26 27 27 28
8 7 6 6 5 3 1 1 2 4 8 11 12 14 15 16 17 17 17 16 16 16 16 17 18 19 20 20 21 22 23 24 24 24 25 26 27 28 28 29 30 31 31
8 8 7 6 5 4 3 2 3 4 6 8 10 12 14 15 16 16 16 16 17 17 17 18 19 20 21 22 23 24 25 26 27 28 29 29 30 31 32 32 32 33 34
9 9 8 7 6 5 5 4 4 4 4 6 8 11 13 14 15 16 16 17 18 18 19 19 20 21 22 23 25 26 27 28 29 30 31 32 33 34 35 35 36 37 38
11 10 9 8 8 7 7 6 6 6 6 6 8 10 12 13 14 15 16 17 18 19 20 20 21 22 23 25 26 27 28 30 31 32 34 35 35 37 37 38 39 40 41
12 11 11 10 10 10 9 9 9 9 9 9 9 10 11 13 14 15 17 18 19 20 20 21 22 24 25 26 27 29 31 32 33 34 35 37 37 38 39 40 41 43 44
14 12 12 12 12 12 12 12 12 12 12 12 12 12 13 14 15 16 17 18 19 20 21 23 24 25 26 28 30 32 33 34 35 36 37 39 39 41 42 43 44 45 46
15 14 14 13 13 13 14 14 15 15 15 15 15 16 16 17 17 18 19 20 21 22 23 25 26 28 30 31 33 34 36 37 38 39 40 41 42 43 44 46 46 47 47
17 17 16 15 16 16 16 17 17 18 18 18 18 18 19 19 19 20 21 22 23 24 26 27 29 31 32 34 36 37 38 39 40 42 43 44 45 46 47 48 48 49 49
21 20 20 18 18 18 19 19 19 19 20 20 20 20 21 20 21 22 23 24 25 26 28 30 31 33 35 36 37 39 40 41 43 44 45 45 46 48 49 51 51 52 52
24 23 23 22 21 21 21 21 22 21 21 21 22 23 23 23 23 24 25 26 28 30 31 32 34 36 37 38 39 41 42 44 45 46 47 48 49 50 51 52 53 53 54
27 26 25 25 24 24 25 24 24 24 24 24 24 24 24 25 25 27 28 29 30 31 33 34 36 37 39 41 42 44 45 46 47 48 49 50 51 53 54 54 55 55 56
30 29 28 28 28 27 27 27 26 27 26 26 26 26 26 27 27 28 30 31 32 33 35 37 39 41 42 43 44 45 47 48 50 51 52 53 53 54 55 55 56 56 56
31 31 30 29 28 28 28 29 28 28 28 28 28 28 29 29 30 32 33 33 34 36 38 39 41 42 44 45 46 48 49 51 52 53 54 55 55 55 56 56 56 56 57
32 32 31 30 29 28 27 27 28 29 30 30 30 30 30 31 33 34 35 36 37 38 40 42 43 45 46 47 49 50 51 52 53 54 54 55 55 55 56 56 56 57 57
32 32 32 30 29 29 28 28 29 30 30 30 31 32 32 33 34 35 37 38 39 40 42 44 45 47 48 50 50 51 52 53 53 54 55 55 55 55 55 55 55 56 56

GEFSMW_500_meanwind_108.txt.gz
Wind_Speed
19 16 15 13 10 8 9 9 9 10 15 18 18 17 17 16 17 16 15 13 12 10 10 9 8 8 7 6 5 4 3 3 2 2 1 1 1 1 1 1 1 2 3
18 16 15 13 10 8 8 9 9 10 14 15 17 17 17 16 16 15 15 14 13 11 10 10 9 9 8 7 6 5 4 3 2 2 1 2 1 1 2 2 2 2 3
17 16 15 13 10 8 8 8 9 10 13 14 16 16 16 16 15 15 15 15 14 13 11 10 10 10 9 8 7 6 5 4 3 2 2 2 2 2 2 2 2 3 3
17 16 15 13 10 9 8 8 9 11 12 14 15 16 16 16 15 15 15 15 15 14 13 11 11 10 9 9 8 7 6 5 5 4 4 3 3 3 3 3 4 4 4
17 16 15 13 11 9 8 8 8 11 12 14 15 16 16 16 16 16 16 16 15 15 14 13 12 11 10 10 9 8 8 7 6 6 6 6 6 6 6 6 6 6 6
16 15 14 13 11 9 8 7 8 10 12 14 15 16 17 17 16 16 17 17 16 15 15 14 13 12 12 12 11 10 10 9 8 8 8 8 9 9 9 9 9 9 10
16 14 13 12 11 10 8 6 7 9 11 13 15 15 17 17 17 17 16 16 16 15 14 14 14 14 14 13 12 12 12 11 11 11 11 11 12 12 12 12 13 13 13
15 13 13 13 11 9 7 5 6 7 9 12 14 15 15 16 16 16 16 16 15 15 15 15 14 14 15 14 14 14 14 14 14 14 14 14 14 15 15 16 16 16 16
14 13 12 11 10 8 6 5 5 7 9 10 13 14 15 16 16 16 16 16 16 15 15 15 15 15 15 16 16 15 15 16 16 16 16 17 17 18 19 19 20 20 20
13 12 11 10 10 8 6 4 4 5 8 10 12 14 15 16 15 16 15 15 16 16 16 16 16 16 16 16 17 17 17 18 18 18 19 20 20 20 21 22 23 23 24
13 11 10 9 8 8 7 4 3 4 6 8 11 12 13 15 15 15 16 16 17 16 17 16 16 16 16 16 17 18 18 19 20 20 22 22 23 23 24 25 26 27 27
13 11 9 9 8 7 6 4 3 2 4 6 8 10 12 14 16 15 15 16 16 16 16 16 16 16 17 17 18 18 19 20 21 23 24 25 26 26 27 28 29 30 31
13 12 10 9 8 7 6 5 3 2 2 4 5 6 9 12 14 15 15 16 17 17 17 16 17 17 18 18 19 20 21 21 23 24 25 26 27 28 29 31 32 33 33
13 13 11 10 9 8 6 5 4 4 3 3 5 7 8 10 13 14 15 15 16 17 17 18 18 19 20 20 21 22 22 23 24 25 27 28 28 30 31 32 33 35 36
15 14 13 12 10 9 8 7 6 5 5 5 6 7 9 11 12 13 15 16 16 17 19 19 19 20 21 22 23 23 24 25 26 27 28 29 31 32 34 35 36 37 38
16 15 14 13 12 11 10 9 8 8 8 7 8 8 9 11 12 14 15 15 17 19 20 21 21 21 21 22 23 24 25 26 27 28 30 31 31 33 35 37 38 39 40
19 17 15 14 14 13 13 12 11 11 11 10 10 10 11 12 14 15 16 17 18 19 20 21 21 22 23 23 25 26 28 28 29 30 31 32 34 35 36 38 39 41 42
21 20 18 16 16 15 15 15 14 13 13 12 13 13 13 14 15 16 17 18 19 20 20 21 22 23 24 26 27 28 29 31 32 33 34 35 37 39 40 41 42 43 45
24 23 20 19 18 17 17 16 15 15 15 15 15 15 16 16 17 18 19 20 21 22 23 24 24 25 26 27 29 31 32 34 35 36 38 39 41 42 43 44 46 47 48
28 26 24 22 21 20 19 18 18 18 18 18 18 18 19 19 20 20 21 22 23 24 25 26 27 27 28 29 31 33 35 36 38 39 41 42 43 45 46 47 49 50 51
31 29 27 25 24 23 22 21 21 21 20 20 20 21 21 21 22 22 23 23 24 25 26 27 28 29 31 32 34 36 37 39 40 42 43 45 46 48 49 50 52 53 54
34 32 30 29 28 26 25 24 24 24 23 23 24 24 24 25 25 25 26 26 27 28 29 30 31 32 33 35 36 37 39 41 43 45 46 48 50 51 52 53 54 55 56
35 34 33 32 30 29 28 27 27 27 27 27 27 27 28 28 28 28 29 30 31 31 32 32 34 34 35 37 38 40 41 43 46 47 49 51 52 53 54 55 56 56 56
35 34 33 33 32 31 31 31 30 30 29 30 30 30 30 30 30 31 31 32 34 35 35 35 36 37 38 40 41 42 44 45 47 49 51 52 53 54 56 57 57 57 57
34 33 33 33 33 32 32 32 32 32 32 32 32 32 31 31 31 32 33 34 35 35 35 37 38 39 40 41 43 45 46 47 49 51 52 53 54 55 56 57 57 57 57
32 32 32 33 33 33 33 33 34 34 34 34 33 32 32 32 32 33 34 34 34 35 36 38 39 40 41 43 45 47 49 50 50 52 53 54 55 55 56 55 55 55 54

GEFSMW_500_meanwind_114.txt.gz
Wind_Speed
17 15 14 13 11 10 8 6 6 6 7 8 11 13 15 15 16 18 17 16 15 14 13 12 11 10 10 9 8 7 6 6 5 5 4 4 3 3 3 2 2 2 1
17 14 13 12 10 9 9 6 6 6 7 9 11 13 15 15 16 18 18 17 15 15 14 13 12 11 11 10 9 8 7 7 6 6 5 4 4 3 3 2 2 2 1
14 13 11 10 9 8 7 4 6 7 8 9 11 13 15 17 17 18 18 17 16 15 15 14 13 12 12 11 10 9 8 7 7 6 6 5 4 3 3 3 3 2 2
14 12 10 8 8 7 6 4 6 7 7 9 11 14 16 17 17 18 18 18 17 17 16 15 14 13 13 12 11 10 9 9 8 7 7 6 5 4 4 3 3 3 3
12 11 9 8 7 7 6 4 5 7 7 9 11 15 18 18 18 18 18 18 18 17 17 16 15 14 14 13 12 11 11 10 9 8 7 7 6 6 6 6 5 5 5
11 10 9 8 7 7 5 4 5 6 7 9 11 15 17 18 18 17 17 18 18 18 18 17 16 15 14 14 13 12 12 11 10 10 9 8 8 8 8 8 8 8 8
9 9 9 8 7 7 5 4 4 5 7 10 11 14 16 18 18 18 18 18 18 19 18 18 17 16 15 14 14 13 13 13 12 12 11 10 10 10 10 10 10 10 11
8 8 8 7 7 7 5 3 3 5 7 10 11 14 16 18 18 19 19 19 19 19 19 18 18 17 16 16 15 14 14 14 14 14 13 13 13 13 12 12 12 13 13
6 7 7 7 7 6 5 3 2 3 5 9 11 14 16 17 18 19 19 19 19 19 19 19 18 17 17 17 16 16 15 15 15 15 15 15 15 15 15 15 15 16 16
6 6 6 6 6 6 5 4 3 3 5 7 10 13 15 16 18 19 19 19 19 19 19 18 17 17 16 17 16 17 17 16 16 16 17 17 17 17 17 18 18 19 19
6 6 5 5 5 5 5 4 4 3 4 6 8 12 15 16 18 19 19 18 18 18 19 18 17 17 17 16 17 17 18 18 18 18 19 19 19 20 20 21 21 21 22
5 5 5 5 6 5 5 4 4 4 5 6 7 10 13 16 17 18 18 18 18 18 19 18 18 18 18 18 18 18 18 19 20 20 21 21 21 22 22 23 24 24 25
6 6 5 4 5 5 5 4 4 4 4 5 7 9 10 13 16 17 17 18 18 19 19 19 19 19 19 19 19 19 19 20 21 22 22 23 23 24 25 26 26 27 28
9 8 7 5 5 5 5 4 4 4 5 5 6 9 10 11 13 16 17 17 18 19 19 19 19 20 19 19 19 19 20 21 22 23 24 24 25 26 27 28 29 30 31
11 10 10 8 7 6 5 4 4 4 5 5 5 7 9 10 12 14 15 16 18 19 19 20 20 20 19 19 19 20 21 22 22 23 24 26 26 28 29 30 31 31 32
14 12 12 12 9 7 7 7 6 6 6 6 6 6 7 8 10 12 13 14 16 17 18 18 19 20 20 20 20 21 22 23 24 25 26 28 29 30 31 32 32 33 34
18 17 15 14 12 10 9 9 8 8 8 8 8 8 9 9 9 11 13 14 15 16 17 18 19 20 21 22 22 23 24 25 26 28 29 30 30 31 32 33 34 36 37
22 21 18 16 15 12 11 10 10 10 10 9 9 9 10 11 11 12 13 15 16 17 17 18 20 21 23 24 25 26 27 27 28 29 30 31 32 33 35 36 37 38 40
25 24 22 20 17 15 14 13 12 12 12 12 12 12 13 14 14 14 15 16 17 18 18 19 21 24 25 26 26 27 28 30 31 32 33 34 35 36 37 39 40 41 43
26 24 23 21 19 18 17 16 15 14 14 14 14 14 15 15 15 16 17 17 18 18 19 21 22 24 26 27 28 29 30 32 33 34 35 36 37 38 39 41 42 45 46
28 26 23 22 21 19 20 19 18 17 17 16 16 17 17 17 17 17 17 18 19 20 21 22 24 25 28 29 30 31 32 33 35 35 37 38 39 41 42 44 46 48 49
27 26 25 23 22 21 22 21 20 20 20 19 19 19 19 19 19 19 19 20 21 22 23 24 26 27 28 29 31 32 33 35 36 38 39 41 43 44 46 47 48 49 51
29 28 26 25 24 23 23 23 23 22 22 21 21 20 20 20 21 21 21 23 24 26 28 28 28 29 30 32 33 35 36 37 39 41 43 44 45 47 48 48 50 51 53
27 26 26 26 26 26 25 24 24 23 23 23 23 23 23 23 23 24 24 25 26 28 28 29 30 31 33 34 35 36 37 38 39 41 43 44 46 48 49 50 51 53 54
25 26 26 26 26 26 25 25 25 24 24 24 25 25 25 24 24 25 26 27 28 29 29 30 32 33 35 37 38 38 39 39 40 42 44 47 48 50 51 52 53 54 55
25 25 25 25 25 25 24 24 24 25 25 25 26 26 25 25 26 27 28 29 30 30 32 34 35 35 36 36 37 38 39 41 43 45 47 48 50 51 52 53 54 54 55

GEFSMW_500_meanwind_120.txt.gz
Wind_Speed
18 18 16 14 12 11 11 10 10 10 10 10 10 13 15 16 17 18 18 18 17 16 14 13 12 10 9 9 8 7 6 5 4 4 4 4 3 3 2 2 1 1 1
18 18 17 15 13 11 10 9 9 10 10 11 12 13 15 16 17 18 19 18 18 17 16 15 14 12 11 10 9 9 8 6 5 5 5 5 4 4 3 3 2 2 2
17 17 16 15 14 12 10 7 8 10 11 11 12 13 14 15 15 16 18 19 18 18 18 17 16 14 13 12 11 10 9 8 7 6 6 6 5 5 4 4 4 3 3
15 15 15 15 14 12 10 8 8 9 10 11 11 13 15 15 16 17 19 19 19 18 18 18 17 15 14 13 12 11 11 10 8 7 7 7 6 6 5 5 5 5 5
14 15 14 13 12 11 10 8 8 8 10 11 12 12 15 16 16 17 19 19 19 19 18 18 17 16 15 14 13 12 12 11 10 9 9 8 8 8 7 7 7 7 7
14 14 12 11 10 10 9 8 7 8 10 11 12 13 14 16 17 18 19 20 20 19 19 18 17 17 16 15 14 13 13 12 12 11 11 10 10 9 9 9 9 10 10
12 11 10 9 8 9 8 7 7 8 9 10 11 11 14 16 17 19 20 21 21 20 20 20 19 18 17 16 15 15 15 14 14 13 13 13 12 12 12 12 12 12 13
10 9 9 7 7 7 7 7 7 8 8 10 11 12 13 15 17 20 20 20 21 20 21 20 20 19 17 16 16 16 16 16 16 15 15 15 15 15 15 15 15 15 15
9 8 7 6 6 6 6 6 6 8 9 10 11 12 14 15 17 20 21 21 20 20 20 20 20 20 19 18 18 17 17 17 17 17 17 17 17 17 17 17 17 18 18
9 8 6 6 6 5 5 4 5 7 9 10 11 12 13 15 17 18 20 20 21 20 19 20 20 20 20 20 19 18 19 19 18 19 19 18 18 19 19 20 20 20 21
9 8 8 8 7 5 4 4 5 5 7 9 10 12 13 14 15 17 19 20 20 20 20 20 21 21 21 21 20 20 20 20 20 20 20 20 20 20 21 22 22 23 23
8 7 7 8 7 6 6 5 5 5 6 7 9 10 12 14 15 17 18 18 20 20 20 21 21 21 21 21 21 21 21 21 21 22 22 22 23 23 23 23 24 24 24
8 7 7 7 6 7 7 6 5 6 6 7 8 9 11 13 15 17 18 18 20 20 20 20 20 20 21 22 22 22 22 22 23 23 24 24 24 25 25 25 26 26 27
8 8 7 6 7 7 7 6 7 7 7 7 7 8 10 12 14 16 17 18 19 20 20 21 20 21 21 21 22 23 23 24 24 24 24 25 25 25 26 27 28 28 29
11 10 9 7 8 8 8 7 8 8 7 8 8 8 10 11 13 15 16 16 17 19 19 19 19 20 21 21 22 23 24 24 24 25 25 25 26 27 28 29 30 31 31
13 13 12 10 10 11 10 10 10 9 8 8 8 9 10 11 12 14 15 16 16 17 19 20 20 20 20 21 22 23 23 24 24 25 26 27 28 29 30 31 32 34 35
16 15 15 14 14 13 13 12 11 10 10 10 10 10 10 10 12 13 14 16 17 17 18 19 20 20 20 21 23 24 25 25 26 27 28 28 30 32 33 34 36 37 38
20 18 17 18 18 17 16 16 14 13 12 11 10 10 10 10 10 11 12 15 16 18 19 20 21 21 21 22 23 24 26 26 27 29 30 31 33 34 35 36 37 38 40
22 22 20 20 20 20 18 18 17 16 15 14 13 13 12 12 12 13 13 15 16 17 18 19 20 21 21 22 24 25 26 27 29 30 32 34 34 35 37 38 39 41 42
24 24 23 23 22 22 21 20 19 18 17 17 16 17 16 15 15 16 16 16 17 19 20 20 21 22 23 24 25 26 27 29 31 32 35 36 37 38 39 40 42 44 45
24 24 24 23 23 23 23 21 20 19 19 19 18 18 19 18 18 18 19 19 20 20 21 22 23 24 25 27 27 28 30 32 33 34 35 37 38 39 40 42 44 46 48
25 24 23 23 24 24 24 23 22 22 21 20 20 21 21 21 20 20 21 20 20 19 21 23 24 25 27 28 31 32 33 34 35 36 36 38 39 41 42 44 47 48 50
26 25 25 25 25 25 25 24 23 23 23 22 22 22 22 22 21 21 21 22 22 22 23 24 25 27 28 30 31 32 34 35 36 38 39 40 43 44 45 46 48 49 51
25 25 25 25 24 24 24 24 24 24 23 23 23 23 22 22 22 21 22 23 24 25 26 27 27 29 30 32 33 34 35 37 38 39 40 42 44 45 46 47 49 51 53
24 24 24 24 23 24 24 24 24 24 23 23 23 22 22 22 23 24 24 26 27 28 29 29 30 31 32 34 35 35 36 38 39 41 42 43 45 46 48 49 51 53 54
23 22 22 21 22 22 22 22 23 24 24 25 25 25 25 24 25 25 26 27 29 30 30 31 32 33 34 36 36 36 38 40 42 43 43 45 46 47 49 51 53 54 56

GEFSMW_500_meanwind_126.txt.gz
Wind_Speed
15 14 13 13 13 13 12 12 11 11 10 11 13 14 14 14 16 18 18 17 16 16 16 14 13 12 11 10 9 8 7 6 6 6 5 5 4 4 4 3 3 2 2
14 13 13 12 13 13 13 12 11 11 11 11 13 14 14 14 15 18 19 18 17 17 16 16 15 13 12 11 10 9 8 7 7 6 6 5 5 5 5 4 4 3 3
13 13 13 12 12 12 12 11 9 8 9 10 12 14 14 14 14 16 19 18 18 18 18 17 16 14 13 12 11 10 9 9 8 8 7 6 6 6 6 6 5 5 5
13 13 14 13 13 12 11 10 8 8 8 10 10 12 13 14 14 16 18 18 18 18 19 18 17 16 15 13 12 11 11 11 10 9 9 8 8 7 7 7 7 7 7
13 13 13 13 12 11 10 10 8 8 8 8 9 11 13 15 16 16 17 19 19 19 19 18 18 17 16 15 14 13 13 12 12 11 11 10 10 9 9 8 8 9 9
13 13 12 12 11 11 10 10 8 8 8 8 9 11 13 14 16 16 17 18 19 20 20 19 19 19 18 17 16 15 14 14 13 13 12 12 12 11 11 10 10 10 11
12 11 10 11 11 10 10 9 8 8 8 9 9 11 12 13 15 16 17 18 18 20 20 20 19 19 19 18 17 16 16 16 15 15 15 14 14 14 14 13 13 13 13
10 9 9 9 9 9 9 8 7 7 7 8 9 11 12 12 14 16 17 18 19 19 20 20 20 20 20 19 18 18 18 17 17 17 17 17 17 17 16 16 16 16 16
8 8 8 8 8 8 7 6 7 7 7 8 9 10 11 13 14 16 16 18 19 20 20 20 20 21 21 21 20 19 19 18 18 18 18 19 19 19 19 18 18 19 19
6 6 6 7 7 7 7 6 6 6 7 8 9 10 11 12 14 15 16 17 19 20 19 21 21 22 22 22 21 21 20 20 20 20 20 20 20 21 21 21 21 22 22
7 6 6 6 7 6 6 6 6 5 6 8 9 10 11 12 13 15 16 17 19 21 21 21 22 22 23 23 22 22 21 21 21 21 21 21 22 22 23 24 24 24 25
7 7 6 6 5 5 6 5 5 5 6 6 8 11 12 12 13 15 16 17 18 20 21 22 22 22 23 23 23 23 22 22 22 23 23 23 24 24 25 25 26 26 26
8 8 7 6 5 5 6 5 5 5 5 6 7 9 11 12 13 14 16 17 19 20 21 22 22 22 21 22 22 23 23 23 24 24 25 24 24 25 26 27 27 28 29
10 9 8 7 7 7 6 6 6 6 6 7 8 9 10 11 13 14 15 16 17 18 20 21 21 21 21 21 22 22 23 24 25 25 25 25 26 26 27 28 29 29 30
11 10 10 9 8 9 8 8 8 8 8 8 9 10 10 11 12 13 15 15 16 17 19 20 21 21 21 21 22 22 23 24 26 27 27 27 27 28 29 30 31 31 31
12 12 12 11 11 11 11 11 10 10 10 10 11 12 12 12 13 14 15 15 16 17 18 19 20 21 21 22 22 23 24 25 25 26 27 27 27 29 30 31 32 34 34
15 14 14 14 14 14 14 13 13 13 12 12 12 12 13 13 13 14 15 16 17 18 19 19 20 20 21 22 23 24 24 25 25 27 28 29 30 32 32 32 33 35 36
18 17 17 17 17 17 17 17 17 16 15 15 14 14 14 15 15 15 16 18 20 21 21 21 22 23 23 23 24 24 25 25 26 28 29 30 31 32 32 33 34 35 37
20 20 21 20 20 20 19 19 19 19 18 17 16 16 17 17 17 17 18 19 20 21 22 22 23 24 25 25 26 27 28 28 28 28 30 31 32 33 33 35 36 37 38
23 23 23 22 22 22 21 21 21 20 19 19 18 18 18 19 20 20 19 20 21 22 23 24 24 24 25 26 26 27 29 29 29 30 31 32 33 34 35 37 39 40 41
24 24 24 24 24 23 23 23 23 22 21 21 21 20 20 20 21 21 21 21 22 23 23 23 23 24 25 26 27 29 30 30 31 32 32 34 36 37 38 39 41 43 44
27 27 26 26 26 26 25 25 24 24 24 23 23 22 22 23 23 23 23 23 24 25 24 24 24 24 25 26 28 29 31 32 33 33 35 36 37 39 41 42 43 44 45
28 28 28 28 28 27 27 26 25 25 25 24 23 23 24 24 25 25 26 27 26 26 26 26 26 27 27 28 29 30 32 33 34 35 36 38 39 40 42 43 44 44 45
27 28 29 28 28 28 27 27 27 26 26 25 25 25 26 26 26 25 26 26 27 27 28 28 27 28 29 30 30 32 34 35 35 36 38 39 41 42 43 43 43 44 45
26 27 27 27 27 27 27 26 26 26 27 26 26 26 27 27 27 27 27 26 27 27 27 28 29 29 29 30 32 35 35 36 37 39 40 41 42 43 42 43 44 45 46
24 24 25 25 26 26 26 26 26 27 27 27 27 27 27 27 27 27 27 28 28 28 28 29 30 31 32 33 34 34 34 35 37 39 41 41 42 42 43 44 45 46 46

GEFSMW_500_meanwind_132.txt.gz
Wind_Speed
16 16 16 15 15 15 14 13 13 13 12 11 9 9 9 10 11 11 12 13 13 14 13 13 12 11 11 10 9 8 7 7 6 6 5 5 5 4 3 3 2 2 1
15 16 15 14 14 14 14 13 12 12 11 9 8 8 9 10 11 11 11 12 13 14 14 13 13 12 12 11 10 9 8 8 7 7 7 6 5 5 5 4 4 3 3
17 15 14 13 13 13 14 13 11 12 11 9 8 9 8 9 10 11 12 13 14 15 15 14 14 13 12 12 11 10 10 9 8 8 7 7 6 6 6 6 5 5 5
17 15 14 13 13 13 13 12 11 11 10 9 9 9 9 9 9 10 11 14 15 16 16 15 15 14 14 13 12 12 11 11 10 10 9 9 8 8 8 7 7 7 7
16 15 14 13 13 13 13 12 11 11 10 10 9 9 9 9 10 10 12 13 15 15 16 16 16 16 15 14 14 14 13 12 12 11 11 10 10 9 9 9 9 9 9
16 14 12 12 12 12 12 11 10 10 10 9 9 9 9 9 10 11 12 13 14 15 15 16 16 17 17 16 16 15 15 14 13 13 13 12 12 12 12 11 11 11 11
15 13 12 11 11 11 11 10 9 10 9 9 9 9 9 10 11 12 13 14 15 15 16 16 16 17 18 18 17 16 16 15 15 14 14 14 14 14 13 13 13 13 14
13 13 11 10 10 10 10 9 10 9 9 9 9 10 10 10 11 12 13 14 15 16 17 17 16 17 18 19 19 18 18 17 16 16 16 16 16 16 16 16 16 16 16
12 11 10 10 9 9 9 9 9 9 8 8 9 9 10 11 12 13 14 14 15 16 17 18 17 18 20 20 20 20 20 19 18 18 18 18 18 18 19 19 19 19 19
12 10 9 9 9 8 9 8 8 7 6 7 8 9 10 10 12 12 13 14 14 15 16 17 18 19 20 21 21 21 21 21 21 21 20 21 21 20 21 21 21 21 22
12 11 9 9 9 9 9 9 8 7 7 7 8 9 10 10 10 12 13 14 15 15 16 17 18 19 21 21 22 22 23 23 22 22 22 22 22 22 22 22 23 23 23
13 12 11 10 9 9 9 8 7 7 7 8 8 9 9 10 10 11 12 14 16 17 18 18 19 19 20 22 22 22 23 23 23 22 23 23 23 23 23 23 24 25 25
14 12 12 11 11 10 9 8 7 7 8 9 9 9 10 10 11 12 14 15 16 18 18 18 18 19 20 21 20 21 21 21 22 22 23 24 25 25 25 25 25 25 26
14 13 13 13 12 11 10 9 9 8 9 9 9 10 10 11 12 13 14 15 16 17 18 18 18 18 19 19 19 20 21 21 22 22 22 24 24 25 25 26 26 27 28
15 15 15 14 13 12 11 11 11 11 10 10 10 10 11 11 12 13 13 14 15 16 16 17 17 18 19 19 20 20 21 21 22 22 23 24 24 25 25 27 28 29 30
17 16 16 15 15 14 14 14 13 13 12 12 12 12 12 13 13 13 14 14 15 15 15 15 16 17 18 19 20 20 21 22 23 24 25 25 26 27 27 28 29 31 32
18 18 17 17 16 16 16 15 15 15 15 15 15 14 14 14 14 14 14 14 15 15 16 17 17 18 18 19 20 21 22 24 25 25 26 26 27 28 29 29 30 32 33
20 19 19 18 18 18 18 18 18 18 17 17 17 16 16 16 16 16 16 16 16 16 17 17 18 19 20 20 21 22 24 25 26 26 26 27 28 28 29 30 31 32 34
22 21 21 20 20 21 21 21 21 21 20 20 19 19 18 18 18 18 18 18 18 18 18 18 19 20 21 23 24 24 26 27 28 28 28 29 30 30 30 32 33 34 36
24 24 23 23 23 23 23 23 23 23 22 22 21 20 20 20 20 20 20 20 20 19 19 20 21 22 24 25 25 26 27 28 29 29 30 31 31 31 32 33 35 36 37
25 25 25 25 25 25 25 25 25 25 25 24 24 23 22 22 22 22 22 22 22 21 21 22 23 24 25 26 27 28 29 29 28 28 29 30 31 32 33 35 37 38 39
27 26 26 27 27 27 27 26 26 26 26 26 25 25 24 24 23 23 23 22 22 22 22 23 24 25 26 26 27 27 28 28 28 28 29 31 32 33 35 36 38 40 40
29 28 28 28 28 28 28 28 27 27 27 26 26 25 25 25 24 23 23 23 23 24 25 25 25 26 26 26 26 27 27 28 29 29 29 31 33 35 36 38 39 41 41
31 30 30 30 30 29 29 29 28 29 28 28 27 26 26 26 25 24 25 25 25 26 26 27 26 26 26 26 26 26 27 28 29 30 32 33 35 37 38 39 40 40 41
31 31 30 30 30 30 29 28 28 28 27 27 27 27 26 26 26 25 25 25 26 27 27 26 25 25 26 26 27 28 30 31 32 33 35 36 37 37 38 39 40 40 40
31 31 30 30 29 29 28 27 27 27 26 26 26 26 26 25 25 25 25 25 26 26 26 26 26 26 27 29 30 30 30 31 33 35 36 36 36 37 38 38 38 39 40

GEFSMW_500_meanwind_138.txt.gz
Wind_Speed
15 14 14 13 13 12 11 9 8 8 7 6 6 5 5 6 8 9 10 10 12 12 12 13 12 12 11 10 9 9 8 8 7 7 7 7 6 6 5 5 5 4 4
15 14 14 14 13 12 11 9 8 8 7 7 6 5 5 6 7 9 11 11 13 13 13 13 13 13 12 11 10 9 9 9 8 8 8 8 8 7 7 7 6 6 5
15 15 14 13 12 11 11 9 8 8 7 7 6 5 6 6 7 8 10 11 13 14 14 15 14 13 13 12 11 11 10 10 9 8 9 9 8 8 8 8 8 8 7
15 14 13 12 10 10 10 9 8 7 7 7 6 5 6 6 7 8 9 11 12 12 13 15 15 14 14 14 13 12 11 11 11 10 10 10 10 10 10 9 9 9 9
15 14 13 11 9 8 8 8 7 7 7 7 7 7 7 7 8 9 9 11 12 13 14 15 15 15 15 15 14 13 13 13 12 12 12 11 11 11 11 11 11 11 11
15 13 12 10 9 8 8 7 7 7 7 8 8 8 8 9 9 9 9 11 12 13 14 14 15 15 15 15 15 15 15 14 14 14 13 13 13 13 13 13 13 13 13
13 12 12 10 9 9 8 7 7 7 7 7 8 8 8 9 9 10 10 10 12 13 14 14 14 15 16 16 16 16 16 16 16 16 15 15 15 15 14 15 15 15 15
12 11 11 10 8 8 8 8 7 8 8 8 8 8 8 9 9 10 10 11 12 13 15 15 15 15 16 16 17 17 18 18 18 18 17 17 17 16 16 17 17 17 16
11 10 9 8 7 8 8 7 7 7 8 8 8 8 8 9 9 9 10 11 12 13 15 16 16 16 17 17 18 18 19 19 20 20 19 19 19 18 18 18 18 18 18
11 9 8 7 7 7 7 7 6 6 7 7 6 6 7 8 9 9 10 11 13 14 15 16 17 18 18 19 19 19 20 20 21 21 21 21 21 20 20 20 21 21 21
9 8 8 8 7 7 8 8 8 7 7 6 6 6 6 7 8 9 10 11 13 14 15 16 17 17 18 18 19 20 21 21 21 22 22 22 22 23 23 23 23 22 22
9 9 8 8 7 8 8 8 8 7 6 5 5 6 6 7 8 9 10 11 12 13 15 16 17 18 18 19 20 21 21 21 21 22 22 22 22 23 23 24 24 23 23
10 10 9 8 7 8 8 8 8 7 6 6 6 7 7 8 9 10 11 11 12 13 14 16 17 18 18 19 20 20 21 21 20 21 21 21 22 22 24 24 24 25 25
11 11 10 9 8 8 8 8 8 8 7 8 7 8 8 8 9 10 11 12 13 13 15 15 17 18 19 19 19 18 19 20 21 20 21 22 22 23 23 24 25 25 25
13 13 12 11 9 9 9 9 8 8 8 8 8 9 9 9 9 10 10 11 11 12 13 14 15 16 17 18 18 18 18 19 20 21 22 22 23 23 24 25 25 25 26
14 14 13 11 11 11 10 10 10 10 10 10 10 10 10 10 10 10 10 11 12 12 13 14 15 16 17 18 18 19 20 21 22 22 23 23 24 25 25 25 26 26 27
16 15 14 13 13 13 13 12 11 12 12 12 12 12 12 12 12 12 12 12 13 13 14 14 15 16 17 18 19 20 20 21 21 22 23 23 24 25 26 27 27 28 29
17 16 16 15 14 14 15 14 14 14 14 14 14 14 15 15 14 14 14 14 14 15 14 15 16 18 19 19 19 21 21 21 22 23 23 24 25 25 26 26 27 28 29
19 19 18 17 16 17 17 16 16 16 17 17 17 17 17 16 16 16 16 16 16 16 16 16 17 17 18 18 20 21 21 22 23 24 25 25 26 27 28 28 28 30 31
22 21 20 19 19 19 19 19 19 19 19 19 19 19 18 18 17 17 17 17 17 17 18 18 19 19 19 20 20 20 21 23 24 25 26 26 27 28 28 29 31 32 33
24 23 22 22 21 21 21 21 21 21 21 21 21 20 20 19 19 19 19 19 19 19 20 20 20 21 21 22 22 22 23 24 25 26 27 27 28 28 29 31 31 32 33
26 25 24 24 23 23 23 23 23 23 23 23 23 22 22 21 21 21 21 21 21 21 21 21 22 22 22 22 23 24 25 25 26 26 27 27 28 28 30 31 31 33 35
29 28 27 26 25 25 25 24 24 25 24 24 24 24 23 23 23 23 22 22 22 22 22 22 22 23 22 23 24 25 25 25 25 26 26 27 28 29 31 32 33 35 36
30 30 29 28 27 27 26 26 26 26 26 25 25 25 24 24 23 23 23 23 23 23 23 23 23 23 24 24 25 25 26 26 27 27 27 29 30 31 33 34 34 36 37
31 31 30 29 28 28 28 27 27 27 26 25 25 24 24 24 23 23 23 23 23 23 23 23 23 24 24 25 25 25 26 26 27 27 29 30 30 31 33 34 36 37 37
31 31 30 30 29 29 28 28 28 28 27 26 25 24 24 24 24 23 23 23 23 23 24 24 25 25 25 25 26 25 25 26 27 29 30 31 31 33 33 34 35 35 36

GEFSMW_500_meanwind_144.txt.gz
Wind_Speed
14 13 12 11 11 10 9 8 8 7 5 5 6 6 5 7 7 7 7 8 9 9 10 10 10 10 10 9 9 8 8 8 7 7 7 7 7 7 6 6 6 5 5
14 14 13 12 11 10 9 9 8 7 6 6 7 6 6 6 7 7 8 8 8 9 10 10 10 10 10 10 10 9 8 8 8 8 8 9 8 8 8 7 7 7 6
14 14 13 13 11 11 11 10 8 8 7 6 6 6 6 6 7 7 8 8 7 8 10 11 11 11 11 11 11 10 10 10 9 9 9 10 9 9 9 9 9 8 8
14 14 14 14 12 11 10 8 8 8 8 7 7 7 6 7 7 7 8 8 9 9 10 12 12 13 13 13 13 12 12 12 11 11 11 11 11 11 11 11 11 11 10
13 13 14 13 11 10 8 7 7 7 7 7 7 8 8 8 8 8 8 9 10 11 11 12 13 14 14 15 14 14 13 13 13 13 13 12 13 13 13 13 13 13 13
13 13 12 12 10 8 7 7 7 7 6 7 7 8 8 9 10 9 9 9 10 11 12 13 14 14 15 15 15 15 15 15 15 15 15 15 14 15 15 15 15 15 16
13 13 11 11 9 8 7 7 7 7 7 7 8 8 8 9 10 10 10 10 11 12 13 14 14 15 16 16 17 17 17 17 16 17 17 17 17 17 17 17 17 17 17
12 12 12 10 9 7 7 7 6 7 7 7 7 8 9 9 10 10 11 11 12 13 13 14 15 16 16 17 17 18 18 18 18 18 19 19 19 20 20 20 19 20 19
12 12 12 11 9 8 8 7 5 5 6 7 7 7 7 8 9 10 11 11 12 13 14 14 15 16 17 17 18 18 19 19 20 20 20 20 20 21 21 22 22 22 22
12 12 12 10 8 7 7 6 6 6 6 6 7 7 7 7 8 9 10 12 13 13 14 15 16 17 17 18 19 19 20 21 21 21 21 21 22 22 23 24 24 23 23
12 12 11 10 8 7 7 7 7 7 6 6 7 7 7 7 7 8 10 11 12 13 14 15 16 18 19 20 20 20 21 22 22 22 23 23 23 24 24 24 25 25 25
12 11 11 10 8 7 7 7 6 6 6 6 6 6 6 7 8 8 9 10 11 13 14 15 16 18 19 20 20 20 21 22 23 23 24 25 25 25 25 24 24 25 26
10 11 11 10 8 7 7 7 6 6 6 7 7 6 7 8 9 9 10 10 10 12 13 15 16 17 19 20 20 21 22 22 23 25 25 25 25 24 25 25 26 26 26
11 11 10 9 9 9 7 7 7 7 7 7 7 6 7 7 8 10 10 11 12 13 13 14 16 17 19 20 22 22 23 23 24 24 24 24 24 25 25 26 27 27 27
12 12 10 9 9 9 8 7 7 8 8 8 8 8 7 8 9 10 10 11 12 13 14 15 16 17 18 20 21 22 22 23 23 24 25 24 24 25 26 27 28 27 27
12 12 11 10 9 9 9 9 9 9 9 9 9 9 9 10 11 11 11 12 12 13 14 15 15 17 18 19 21 21 22 22 23 24 24 24 25 26 27 27 27 27 27
13 13 12 11 10 10 10 10 10 10 10 11 11 11 12 12 12 13 13 13 14 14 14 15 16 16 17 19 20 20 21 22 23 23 24 24 25 26 26 27 28 28 28
15 15 13 12 12 12 12 12 11 11 12 12 13 13 14 14 15 15 15 16 16 16 16 16 16 17 18 18 19 21 22 22 23 23 24 25 26 27 28 28 29 30 31
17 16 15 14 14 14 14 14 14 14 14 14 15 15 15 15 16 17 17 18 18 18 18 18 18 18 19 18 18 20 21 22 23 24 25 26 26 27 28 29 30 31 33
19 18 18 17 17 17 17 17 17 16 16 16 16 17 17 17 18 19 19 19 19 20 20 20 20 20 20 20 20 21 21 23 23 24 25 25 26 27 28 29 30 32 33
20 19 19 19 19 19 20 19 18 18 18 18 19 19 19 19 20 20 21 21 21 21 21 21 21 21 22 22 22 22 23 23 24 25 25 26 27 28 29 30 31 32 32
22 22 22 22 22 22 22 21 20 20 20 20 21 21 22 22 22 22 22 22 23 22 23 23 23 23 23 23 23 23 24 24 25 25 26 27 28 28 29 30 32 32 32
26 25 25 25 25 24 23 22 22 22 22 22 23 23 23 23 23 23 23 23 23 23 23 23 23 23 24 24 24 25 25 26 27 28 28 28 28 29 30 31 32 33 33
27 28 28 27 26 26 25 24 23 23 23 24 24 24 24 24 24 24 24 24 24 23 23 24 24 24 24 24 25 25 26 27 27 28 29 29 29 30 31 32 33 34 35
30 30 29 27 26 26 25 25 25 25 25 25 26 26 25 25 25 25 25 25 24 25 25 25 25 25 25 25 25 26 26 26 27 28 29 30 30 31 32 32 32 34 35
31 29 28 28 28 27 28 27 27 26 27 27 27 26 26 26 26 27 26 26 26 26 26 26 26 26 26 25 25 26 26 27 28 29 30 31 31 31 32 32 33 34 34

GEFSMW_500_meanwind_150.txt.gz
Wind_Speed
13 12 11 12 12 12 11 10 9 8 7 7 7 7 8 7 7 7 7 7 7 7 7 8 9 10 10 9 9 8 8 7 7 6 6 6 6 7 7 7 6 6 6
13 12 12 12 12 12 11 11 9 9 9 8 8 7 7 7 8 8 7 8 8 8 8 10 10 11 11 11 10 10 9 8 7 7 7 7 8 8 8 8 8 8 8
14 14 13 13 11 11 11 11 11 10 9 8 7 8 7 7 8 7 7 7 8 8 9 10 11 11 12 11 11 10 10 9 9 9 9 9 9 9 9 10 10 10 10
13 13 13 13 12 11 11 12 11 10 9 7 7 7 7 7 7 7 7 7 8 9 9 10 11 12 12 12 12 12 11 11 11 11 10 11 11 11 11 11 12 12 12
13 14 13 13 13 13 11 11 11 9 8 7 7 7 7 7 7 7 8 8 8 9 10 10 12 13 13 13 13 13 13 12 12 12 12 13 13 13 13 13 14 14 14
13 13 13 13 12 12 11 10 10 8 7 7 7 7 7 8 8 9 9 9 10 10 11 11 12 13 14 14 14 14 14 14 14 14 14 15 15 15 15 15 16 16 16
12 12 12 12 12 11 10 9 9 8 8 8 8 8 7 8 8 9 10 11 11 11 11 12 13 13 14 15 15 15 15 15 16 16 16 17 17 17 18 18 18 19 19
11 11 11 12 13 12 10 9 9 9 8 8 8 8 8 8 8 8 9 10 11 11 11 12 13 13 14 15 16 16 16 16 17 18 18 18 19 19 19 19 20 21 21
11 11 11 12 13 12 10 10 10 9 9 9 8 8 8 9 9 9 9 9 10 11 12 13 13 14 15 16 17 17 18 18 18 19 19 19 20 20 21 21 21 22 23
12 12 11 12 11 10 9 9 9 8 8 8 8 8 9 9 9 9 9 9 11 12 12 14 15 15 15 16 17 19 19 20 20 21 21 21 22 22 23 23 24 24 24
12 11 11 11 10 8 8 8 8 8 8 8 8 8 8 9 9 9 10 10 11 11 12 13 15 16 16 17 18 19 20 21 22 22 23 23 23 24 24 25 25 25 25
11 11 11 10 9 8 8 9 8 7 7 7 8 8 8 8 9 10 10 10 11 11 12 13 14 16 17 17 18 19 21 22 22 23 24 25 25 26 26 26 26 26 27
11 11 10 10 9 9 9 9 8 8 7 7 7 8 9 9 9 9 10 10 11 12 12 13 14 15 16 18 19 20 21 22 22 23 24 25 25 26 26 26 27 26 26
11 11 10 10 10 10 10 9 8 7 7 7 8 9 9 10 10 10 10 11 11 12 12 13 14 15 16 18 19 20 21 22 23 24 25 25 26 26 26 26 26 26 25
12 12 12 11 11 11 10 10 9 8 8 8 9 10 10 10 10 10 10 11 12 12 13 14 15 16 17 17 19 20 21 22 23 24 25 24 24 25 26 25 25 26 27
13 13 12 12 11 11 11 10 10 9 10 10 10 10 10 10 11 11 12 12 13 13 14 15 15 16 17 18 18 19 20 21 22 23 24 23 23 24 24 25 25 26 27
13 13 12 12 11 11 11 11 11 11 11 11 11 11 11 11 12 12 12 13 14 14 15 15 16 17 17 18 19 19 20 20 21 22 22 23 23 23 23 24 26 27 28
15 14 13 12 13 13 13 13 12 12 12 13 13 13 13 13 13 13 14 15 15 16 17 17 17 18 18 19 19 19 19 20 21 21 21 22 23 23 24 25 26 27 28
17 16 15 15 15 14 13 13 13 14 14 14 14 14 15 15 15 16 16 16 17 18 18 18 18 19 19 20 20 20 20 20 21 21 21 22 23 24 25 26 26 27 28
19 18 17 17 16 16 15 14 14 15 15 16 16 16 16 16 17 17 18 18 19 19 19 19 20 20 21 21 21 21 21 21 22 23 23 23 24 25 25 26 26 27 27
20 20 19 19 19 18 17 17 17 17 17 18 18 18 18 18 18 19 19 20 20 20 21 21 22 22 23 23 23 23 23 23 23 23 24 24 24 25 25 25 26 27 27
22 22 22 21 21 20 20 19 19 19 19 19 20 20 20 20 21 21 22 22 22 22 23 23 24 24 24 24 24 24 24 24 24 24 25 25 25 25 26 26 27 27 28
23 24 24 24 24 23 22 22 22 22 22 21 21 21 22 22 23 23 24 24 24 25 25 25 25 25 25 25 25 25 25 24 25 25 25 25 26 27 28 28 28 28 29
26 26 26 26 26 26 25 25 24 24 24 23 23 23 24 24 25 25 25 25 25 25 26 26 26 26 26 26 26 26 26 26 25 26 26 26 27 28 28 29 29 29 30
28 28 28 28 28 28 28 28 28 27 26 26 25 25 25 26 26 26 26 26 26 26 26 26 26 26 26 26 27 27 27 27 27 28 28 28 28 28 29 30 30 30 31
30 30 30 30 30 30 30 29 30 30 29 28 28 27 27 27 28 28 28 28 28 27 27 27 27 27 28 28 28 28 29 29 29 29 29 29 29 29 30 31 31 31 32

GEFSMW_500_meanwind_156.txt.gz
Wind_Speed
15 15 15 15 14 14 14 13 13 12 10 9 9 8 7 7 7 7 7 7 7 7 8 8 8 8 9 9 8 7 7 6 6 6 5 5 5 6 6 6 6 6 6
15 15 15 15 14 14 14 14 14 13 11 10 9 8 8 8 8 7 6 7 7 7 8 8 9 9 9 9 10 9 8 8 7 7 7 7 7 7 8 8 8 8 8
15 15 14 14 14 14 14 15 13 13 12 10 8 8 8 8 8 7 7 7 6 7 8 9 9 9 10 10 10 10 10 10 9 9 9 9 9 9 9 10 10 10 10
15 15 14 14 14 14 14 14 13 11 10 10 8 8 8 8 7 7 6 6 7 7 8 8 9 9 10 10 11 11 11 11 11 11 10 10 10 10 10 11 11 11 11
16 15 14 14 14 14 14 13 13 11 10 9 8 8 8 7 7 6 6 6 7 7 8 8 9 10 10 11 12 12 13 13 12 12 12 12 12 12 12 12 12 13 13
15 14 14 15 15 14 14 14 13 12 10 9 9 8 8 7 7 7 6 6 7 7 8 9 9 10 11 11 12 13 13 13 13 14 14 14 14 14 15 15 15 15 15
14 13 14 15 14 14 13 13 12 12 11 10 9 8 8 7 7 7 7 7 7 8 9 9 10 10 11 12 13 13 13 14 14 15 15 16 16 16 16 17 17 17 18
14 14 14 14 13 13 13 13 13 12 12 11 10 10 9 8 8 7 8 8 8 8 9 10 10 11 12 13 14 14 15 15 16 16 17 18 18 19 19 19 19 20 20
14 13 13 13 13 13 13 13 13 13 13 11 10 10 10 9 8 8 8 9 9 10 10 10 11 11 12 13 15 15 16 16 17 18 18 19 20 20 21 21 21 21 21
13 13 13 13 12 13 13 13 12 12 12 11 10 10 9 8 8 8 9 9 10 11 11 11 11 11 12 13 15 16 16 17 18 19 20 20 21 22 23 24 24 23 23
14 12 12 13 13 13 13 13 12 12 12 11 10 10 9 9 9 9 10 10 11 12 12 12 12 12 12 13 15 16 17 18 19 20 21 21 22 23 24 24 24 24 24
14 14 13 13 13 14 13 13 12 12 12 11 10 10 9 9 9 10 11 11 11 12 12 13 13 14 14 15 15 17 18 19 19 20 21 22 23 23 24 24 24 24 24
15 14 13 14 14 14 14 14 13 12 12 12 11 11 10 10 10 10 11 11 12 12 13 14 14 15 15 16 17 17 19 20 21 21 22 23 24 24 24 25 25 25 25
15 15 14 15 15 15 15 14 13 13 13 12 11 11 11 11 11 12 12 12 13 14 14 15 15 15 16 17 17 18 19 20 21 22 22 23 24 24 24 24 25 25 25
16 15 15 15 16 16 15 14 14 14 14 13 13 12 12 13 13 13 13 13 14 14 15 15 16 16 17 17 18 19 19 20 21 21 21 22 23 24 24 24 24 24 25
17 16 16 15 16 16 16 15 14 14 14 14 14 13 13 14 14 13 13 13 14 14 15 15 16 17 17 18 18 19 20 20 20 21 22 22 23 23 23 23 24 25 26
18 17 16 16 16 16 16 16 16 16 15 15 15 15 15 15 14 14 14 14 15 15 16 16 17 18 18 19 19 19 20 20 21 22 22 22 23 23 23 23 24 25 26
18 17 17 17 17 17 17 17 16 16 16 17 17 16 16 16 16 16 16 16 16 17 17 17 18 19 19 20 21 21 22 22 22 22 23 23 23 23 23 24 25 26 26
20 19 18 18 18 18 17 17 17 17 18 18 18 18 18 18 17 17 17 18 18 19 19 19 20 21 21 22 22 23 23 23 23 23 23 23 24 24 24 24 24 25 25
21 20 20 19 19 19 19 19 18 18 19 19 19 19 19 19 19 19 19 19 20 20 20 21 22 23 23 24 24 24 24 24 24 24 24 24 24 24 25 25 25 25 26
23 22 22 21 21 21 21 20 20 20 20 20 20 20 20 20 21 21 21 22 22 22 22 22 23 24 24 24 25 25 26 25 25 25 25 25 25 26 26 27 27 27 28
24 24 24 23 23 23 23 22 22 22 22 22 22 23 23 23 23 24 24 24 24 24 24 24 25 25 26 26 26 26 26 26 26 26 26 26 27 28 28 28 28 28 29
27 26 25 25 25 25 24 24 24 24 25 25 25 25 25 25 25 26 26 26 26 26 26 26 26 26 27 27 27 27 27 27 27 27 27 27 28 29 29 29 30 30 31
29 29 28 28 28 27 27 27 27 27 28 27 27 27 27 27 28 28 27 28 28 28 28 28 28 28 28 28 28 28 28 28 28 28 29 29 30 30 30 31 31 32 32
31 30 30 30 30 30 30 29 29 30 30 30 29 29 29 30 30 30 29 30 30 30 30 30 30 30 29 30 30 30 30 29 30 30 30 31 31 31 32 33 33 33 33
32 32 31 32 31 31 31 31 31 31 31 31 31 31 31 31 32 32 32 32 32 32 32 32 32 31 31 31 31 31 31 31 31 32 32 32 33 33 33 34 34 33 33

GEFSMW_500_meanwind_162.txt.gz
Wind_Speed
14 14 14 13 13 12 12 12 12 11 10 8 5 4 3 3 3 3 3 3 2 2 3 5 5 5 6 7 8 7 6 6 6 6 6 7 7 7 7 7 8 8 8
14 13 13 12 12 12 12 11 11 10 9 8 6 4 4 3 3 3 3 3 3 3 4 5 6 6 7 8 8 9 8 8 8 8 8 8 9 9 9 10 9 9 9
15 14 13 12 11 11 11 11 11 10 9 8 7 5 4 3 3 4 4 3 4 4 5 5 6 6 7 9 9 10 10 10 9 9 9 10 10 10 10 10 10 10 11
15 13 12 11 11 10 11 11 10 10 9 8 6 5 4 3 4 4 4 4 4 5 5 5 6 7 7 8 10 10 10 11 11 11 11 12 12 11 11 11 11 11 12
14 13 12 11 11 10 10 11 10 10 9 7 6 5 4 4 4 4 4 4 5 5 6 6 6 7 8 9 10 11 11 12 12 12 12 13 13 12 13 13 13 13 14
15 14 13 12 11 11 10 10 10 9 8 7 7 6 5 5 5 4 4 5 5 5 6 7 7 7 8 9 10 11 12 13 13 13 13 13 13 13 14 14 15 15 16
14 13 12 12 11 11 10 10 10 9 9 8 7 6 6 5 6 6 5 5 5 5 6 6 6 6 8 9 10 10 12 13 13 13 14 13 13 13 14 15 16 17 18
13 12 11 11 11 10 10 10 10 9 9 9 8 7 6 5 5 6 5 5 5 5 5 6 6 7 7 8 9 10 11 13 13 14 14 14 15 15 15 15 17 17 19
12 11 10 10 10 10 10 10 10 9 9 8 7 6 6 6 5 5 5 5 5 6 6 7 7 8 8 9 10 10 12 12 13 15 15 16 16 17 17 18 18 18 19
13 13 11 8 9 9 9 10 9 8 8 7 7 7 7 6 6 6 6 6 6 7 8 8 8 9 10 10 10 11 12 13 14 15 16 17 18 18 19 20 20 20 21
14 15 13 9 8 9 9 9 8 8 7 7 7 7 7 6 6 6 6 7 7 7 8 9 9 10 10 11 12 12 12 13 14 15 16 17 18 19 20 21 21 22 23
14 15 13 11 11 9 9 10 8 8 8 8 8 8 7 7 7 7 7 7 8 9 9 10 10 11 11 12 12 12 13 14 15 16 17 18 19 20 21 22 23 23 23
15 16 13 12 11 10 10 10 9 8 8 8 9 9 8 8 8 8 8 8 9 9 10 11 11 11 12 12 12 13 14 15 16 17 18 18 19 20 21 22 22 23 24
15 14 13 12 12 11 10 11 10 9 9 9 10 10 9 9 9 9 9 9 10 10 11 11 12 12 12 13 13 14 15 15 16 17 18 19 19 20 21 21 21 22 22
16 15 14 13 13 12 11 12 12 11 11 11 12 11 10 10 10 10 11 11 11 11 11 12 13 13 14 14 14 15 15 16 17 18 19 19 20 21 21 21 21 21 22
17 17 16 14 15 13 13 13 13 12 12 12 12 11 10 10 11 11 11 12 12 12 12 12 13 14 14 15 15 16 17 17 18 19 19 19 19 20 20 21 21 21 22
18 17 17 16 16 15 14 14 14 13 13 13 13 11 11 11 12 11 12 12 12 13 13 13 14 15 15 16 16 17 17 18 19 19 19 20 20 21 21 21 21 21 22
19 18 18 17 16 15 14 14 15 14 14 14 13 13 12 13 13 13 13 14 14 14 14 14 15 16 16 17 17 18 18 19 19 20 20 21 21 21 21 21 21 22 22
22 20 19 18 17 16 16 16 15 15 15 15 15 14 14 14 14 15 15 15 15 15 15 16 16 16 17 18 18 19 19 20 21 21 21 21 21 21 21 22 22 23 23
23 21 20 19 19 18 18 18 18 17 17 17 17 16 16 16 16 17 17 17 16 16 17 17 18 18 19 19 20 21 21 21 21 21 22 21 21 22 22 22 23 24 25
24 22 21 21 21 20 20 20 20 19 18 18 18 18 18 18 18 18 18 18 18 19 19 19 19 20 21 21 21 21 21 21 22 22 22 22 23 23 23 24 25 26 27
25 24 24 23 22 21 21 21 21 21 20 20 20 20 20 20 20 20 20 20 20 21 21 21 22 22 23 23 23 23 23 23 23 24 24 24 25 25 25 26 27 27 28
26 25 25 25 24 24 23 23 23 23 23 23 22 22 22 21 21 21 22 22 22 22 22 23 24 25 25 25 26 26 26 26 26 26 26 27 27 27 28 28 29 29 30
29 28 27 27 27 26 26 26 25 25 25 24 24 24 23 23 23 23 24 25 25 24 25 26 26 27 27 28 28 28 29 29 29 29 29 29 29 30 30 30 30 31 32
32 31 30 29 28 28 28 28 28 27 26 25 25 26 26 25 25 25 26 26 27 27 27 27 28 29 30 30 30 30 30 31 32 32 32 32 32 31 32 32 32 32 33
34 32 31 31 30 30 30 30 29 29 28 28 28 28 27 27 27 27 28 29 30 30 30 30 30 31 31 32 31 32 32 32 33 34 33 33 33 33 33 33 33 33 32

GEFSMW_500_meanwind_168.txt.gz
Wind_Speed
15 15 15 14 13 12 11 11 11 11 8 6 4 3 3 2 2 2 2 2 3 2 3 3 4 4 5 6 6 6 6 6 6 6 6 7 6 7 7 7 8 9 9
14 15 14 14 12 11 11 11 11 10 8 6 5 3 2 3 3 3 3 3 4 4 4 4 5 5 6 6 7 8 8 8 8 8 8 8 8 9 9 9 10 10 11
13 13 13 13 12 10 10 11 10 9 8 6 5 4 4 4 4 4 4 4 4 5 5 5 5 6 6 7 8 9 9 10 10 10 10 10 11 11 11 12 12 13 13
13 13 12 12 12 10 10 10 10 9 8 7 6 5 4 4 4 4 4 4 4 5 6 6 6 6 7 8 9 10 10 11 11 12 12 12 12 13 13 13 14 14 15
13 13 13 12 12 10 10 10 10 9 8 7 6 5 4 4 5 5 5 5 5 5 6 7 7 8 8 9 10 10 11 11 12 12 13 14 14 14 14 14 15 15 15
14 14 13 12 12 11 11 10 10 9 8 7 7 6 5 5 5 5 5 5 5 5 5 7 7 8 8 8 8 9 11 11 12 13 14 14 14 14 14 15 15 16 17
14 14 13 13 12 13 12 11 11 9 7 7 7 7 6 6 6 5 5 5 5 5 6 6 7 8 7 8 9 9 10 11 13 14 15 15 15 15 16 17 17 18 19
14 14 14 13 13 14 13 12 11 10 8 8 8 8 7 7 6 5 5 5 5 5 6 7 7 8 8 9 9 10 11 12 13 14 15 16 16 17 17 18 19 19 20
14 16 15 13 14 14 14 11 10 9 9 9 9 8 8 7 6 5 6 6 6 7 7 8 8 9 10 10 11 11 12 13 14 14 15 16 17 18 19 19 20 21 21
14 15 15 15 15 15 15 13 11 10 10 9 9 8 8 8 7 7 7 7 7 8 8 9 9 10 11 11 12 12 13 14 14 15 15 16 17 19 19 20 21 22 23
14 15 14 14 15 15 14 12 11 10 9 8 8 8 8 8 8 8 9 9 9 9 9 9 10 11 11 12 12 13 13 14 14 15 16 16 17 18 19 21 22 23 23
14 15 15 14 14 14 13 12 11 10 9 8 8 8 8 9 9 10 10 10 10 10 10 11 11 12 12 13 13 14 14 14 15 16 16 17 18 18 19 20 21 22 23
15 16 16 15 15 13 12 12 11 11 10 9 9 9 9 10 10 10 11 11 11 11 11 12 12 13 13 14 14 14 14 15 15 16 16 17 18 19 20 20 21 22 23
16 17 17 16 16 13 12 13 11 11 10 10 9 9 10 11 11 12 11 11 12 13 13 13 14 14 14 14 15 15 15 16 17 17 18 19 20 21 22 22 23 23 24
17 17 17 17 15 14 13 13 12 11 11 10 10 11 11 12 12 12 12 12 12 13 13 14 14 15 16 16 16 16 16 17 17 18 19 20 20 21 22 22 23 23 23
17 18 17 16 15 15 14 13 13 12 12 12 12 12 12 12 13 13 13 13 13 13 14 15 15 16 17 16 16 17 18 18 18 19 20 21 22 22 22 22 23 24 24
18 18 17 17 17 16 15 14 14 13 14 13 13 13 13 13 14 14 14 14 14 15 16 16 17 17 17 17 18 18 19 19 19 20 20 21 22 22 23 23 23 23 24
19 19 19 19 19 18 17 16 15 15 16 16 15 15 16 15 15 15 15 15 16 16 17 18 17 17 18 19 19 20 20 20 21 21 22 22 22 23 23 23 24 24 25
22 22 22 22 21 19 19 18 18 17 18 18 17 16 17 17 17 17 17 17 17 17 17 17 17 17 18 19 19 20 21 22 22 22 22 22 23 23 24 24 25 26 26
23 23 23 23 21 20 21 20 19 19 20 19 18 18 18 18 19 19 19 18 18 18 18 18 17 17 18 18 19 20 21 22 23 23 24 24 25 25 26 26 26 27 27
23 23 23 23 22 22 22 21 21 21 20 20 20 20 20 20 20 20 20 19 19 19 19 19 18 18 18 19 20 21 22 23 23 24 25 25 26 27 27 27 28 28 29
26 25 24 24 23 23 23 22 22 22 22 21 21 21 21 21 20 20 20 20 20 20 20 20 20 20 20 21 22 23 24 24 25 25 26 27 27 28 29 29 29 30 31
28 27 27 26 26 25 24 24 24 24 25 24 23 23 22 22 21 21 21 21 22 22 22 22 22 23 23 24 24 25 26 26 27 27 28 28 29 30 31 31 31 31 32
30 29 30 29 28 28 27 27 27 27 26 26 25 25 24 24 24 24 23 23 24 24 24 24 24 25 26 26 27 28 28 28 29 30 30 31 31 31 32 32 32 33 33
33 31 30 30 30 30 29 29 28 28 28 27 27 26 26 25 25 25 25 25 26 25 26 26 27 27 27 28 29 30 30 31 31 32 32 33 33 32 33 33 33 34 35
35 33 32 32 31 31 31 31 30 30 30 29 28 28 27 27 27 27 27 27 27 27 27 28 28 29 29 30 31 31 32 33 33 33 33 33 34 33 33 34 34 35 35

GEFSMW_500_meanwind_174.txt.gz
Wind_Speed
13 14 14 14 13 13 13 12 11 11 9 7 4 3 2 1 1 1 1 2 3 3 4 4 5 5 6 6 5 5 6 6 6 7 7 7 7 8 8 8 9 9 9
12 13 13 13 13 12 13 12 11 11 10 8 5 3 3 2 2 2 2 3 3 4 4 5 5 5 6 6 6 6 7 7 8 8 8 9 9 10 10 11 11 11 11
12 12 12 13 13 12 13 12 12 11 10 8 7 5 3 3 3 3 3 4 4 5 5 5 5 6 6 7 7 7 7 7 8 9 9 9 10 11 11 12 12 12 12
11 11 11 12 12 12 13 12 12 11 10 9 8 6 5 5 4 4 4 4 4 5 5 5 6 6 6 7 7 8 9 9 9 10 10 11 11 12 13 13 13 13 14
11 11 11 12 12 12 12 12 12 12 10 10 8 6 5 5 5 5 4 4 4 4 5 5 6 6 6 7 7 8 9 10 10 10 11 11 12 13 14 14 14 15 15
11 12 12 12 12 12 12 12 12 11 10 9 8 7 6 6 5 5 5 5 5 5 6 6 7 7 8 8 9 9 10 10 11 11 12 13 13 14 14 15 15 16 16
12 12 12 13 12 12 12 12 11 10 9 8 7 7 6 6 6 6 6 5 6 6 6 6 7 8 9 9 9 10 10 11 12 12 13 13 14 15 15 16 16 17 17
12 12 13 13 13 13 13 12 11 9 9 8 7 7 7 7 7 7 7 7 7 7 7 7 8 8 8 9 10 11 11 12 12 13 13 14 14 15 16 17 18 18 18
12 13 13 13 14 14 14 13 11 10 9 9 8 8 8 8 8 7 7 8 8 8 8 8 8 9 9 10 11 12 13 13 14 14 14 15 15 16 17 17 18 19 19
12 13 13 13 14 14 13 12 12 11 10 9 8 9 9 9 9 9 9 9 9 8 9 9 10 10 11 11 12 13 14 14 15 15 16 16 17 17 18 18 18 18 19
13 13 14 14 14 13 12 12 11 10 10 9 9 9 10 9 8 9 10 10 10 11 11 11 11 12 12 13 13 14 15 15 15 16 16 17 18 18 18 18 18 19 19
14 14 14 14 14 13 12 12 10 10 10 9 10 10 10 9 9 10 10 11 11 12 12 13 13 13 13 14 15 15 16 16 16 16 17 18 18 18 19 19 19 20 20
14 15 15 14 13 12 12 12 10 10 10 10 10 11 11 11 11 11 11 12 13 14 14 15 14 15 15 15 15 15 15 16 17 17 17 18 18 19 19 20 20 21 21
14 15 14 14 13 12 13 12 11 11 11 10 10 11 11 11 12 12 12 13 13 14 15 15 16 16 16 16 16 16 16 16 17 18 18 18 19 19 20 20 20 21 22
15 15 15 15 14 13 14 14 12 11 11 11 11 12 12 13 13 14 14 14 14 14 15 16 16 17 17 17 18 18 18 18 18 19 19 19 19 20 21 21 21 22 23
15 15 15 16 15 15 15 15 14 13 12 12 12 13 14 15 15 15 15 16 16 16 16 16 16 16 17 18 19 19 20 20 19 20 20 20 20 21 21 22 23 23 24
17 17 17 17 17 16 16 16 16 15 14 13 14 14 15 16 17 17 17 17 17 17 17 17 18 18 18 19 19 20 19 20 20 21 21 21 22 23 23 23 24 24 25
19 19 18 18 18 18 18 18 17 16 16 15 15 16 17 18 18 18 19 19 18 19 19 18 18 18 19 20 20 21 21 20 20 20 21 22 22 23 23 24 25 25 26
20 20 19 19 19 19 19 18 18 18 17 17 18 19 19 19 19 20 20 20 20 20 20 20 19 19 20 20 20 21 21 21 21 22 22 23 23 24 24 25 26 27 28
22 22 21 20 20 20 20 20 20 20 19 20 20 20 20 20 21 21 21 21 20 20 21 21 21 21 21 21 21 21 21 21 22 23 23 23 24 24 25 26 27 28 29
25 25 24 23 22 22 22 21 21 21 22 22 22 22 21 22 21 21 22 22 22 22 22 23 23 22 23 23 22 23 23 23 23 24 24 25 26 26 27 28 29 29 30
27 27 26 25 24 24 24 23 23 23 23 23 23 22 22 22 22 22 23 23 23 23 24 24 24 24 25 24 24 25 26 25 25 26 26 27 28 28 29 29 30 30 30
29 29 29 28 27 26 26 25 24 24 23 23 23 23 23 24 23 24 24 24 24 24 24 25 25 25 25 25 26 27 27 27 27 28 28 29 29 30 30 31 31 32 32
30 31 31 30 30 29 29 28 28 26 26 26 25 25 25 25 25 25 25 25 25 25 25 26 26 26 26 27 28 28 28 28 29 30 30 30 31 32 32 32 33 33 33
32 32 32 32 32 30 30 30 29 29 28 28 28 28 28 27 27 27 27 27 27 27 27 27 27 27 28 28 29 29 29 30 30 31 31 32 33 33 33 34 34 34 34
32 32 32 32 32 32 32 31 31 31 31 31 30 30 29 28 28 28 28 28 29 29 29 28 28 28 29 29 30 31 31 32 32 32 33 33 34 34 34 35 35 35 36

GEFSMW_500_meanwind_180.txt.gz
Wind_Speed
14 15 16 16 17 17 16 16 15 15 14 12 10 9 8 8 7 5 4 3 3 3 3 4 4 4 4 5 5 5 5 5 5 6 6 6 6 7 7 7 7 7 7
13 14 15 16 16 16 16 15 15 15 14 13 11 9 8 7 6 5 4 3 3 3 3 4 5 5 6 5 6 6 6 6 6 7 7 7 7 8 8 8 8 8 8
13 14 15 15 15 15 15 15 16 15 15 13 12 10 8 7 5 5 4 4 3 3 3 4 5 6 6 6 6 7 7 7 8 8 8 8 9 9 10 10 10 10 10
13 14 14 15 15 15 15 15 15 15 14 13 12 10 8 7 5 5 4 4 4 4 4 4 6 7 7 6 7 7 8 9 9 9 10 10 10 10 11 11 11 11 12
12 13 14 15 15 15 15 15 15 15 14 13 11 9 9 8 6 5 5 5 5 5 6 6 7 8 8 8 7 7 8 9 10 10 11 11 11 11 11 11 12 13 13
12 13 14 15 15 15 16 16 15 15 14 13 11 9 9 8 6 6 7 6 6 6 7 7 7 7 8 8 8 9 10 11 11 11 11 12 12 12 12 13 13 14 15
12 13 14 14 15 16 16 15 15 15 14 13 12 10 9 9 8 8 8 8 8 7 7 7 7 8 8 8 9 10 10 11 11 12 12 13 13 13 14 14 15 16 16
12 12 14 14 14 15 16 15 15 15 15 13 12 11 10 10 10 9 9 9 8 8 8 8 9 9 9 9 10 11 11 12 12 13 13 14 15 15 15 16 16 16 17
12 12 13 14 14 15 16 16 15 15 14 14 13 12 11 11 10 9 9 9 9 8 8 9 10 10 10 10 11 12 12 12 13 14 15 15 16 16 17 17 17 18 17
13 13 14 14 15 17 17 16 15 15 15 14 13 12 12 12 11 10 10 10 10 9 9 10 11 11 11 12 12 13 14 14 15 15 16 16 17 17 18 18 18 19 19
14 14 14 16 16 16 16 15 15 16 15 14 14 13 13 13 12 12 11 11 10 11 11 12 12 13 13 13 13 14 15 15 15 16 17 17 18 19 19 19 19 20 20
14 15 15 17 16 16 15 15 16 16 16 15 14 14 13 14 13 12 13 13 13 13 13 13 13 13 14 14 15 15 15 16 17 17 18 18 19 19 19 20 20 21 21
14 15 16 17 16 15 16 16 16 16 15 15 14 14 14 14 13 13 14 14 14 15 15 14 14 14 15 15 15 16 16 17 17 18 19 19 19 20 20 20 21 21 22
15 15 16 16 16 16 16 17 17 16 16 16 15 15 15 14 14 14 15 15 15 15 16 15 15 15 16 16 16 16 17 17 18 18 19 19 19 20 20 20 21 21 21
16 16 16 17 16 16 17 17 18 17 16 16 16 15 15 16 16 15 16 16 17 16 16 15 15 16 16 17 17 17 17 18 18 19 20 21 21 21 21 21 21 22 22
18 18 17 17 17 17 17 18 18 18 17 17 17 17 17 17 17 17 17 17 17 17 17 17 18 18 18 19 19 19 19 19 19 20 20 21 21 21 21 21 22 22 23
21 20 19 18 18 18 18 19 19 19 19 19 19 19 19 19 19 19 19 19 19 20 20 20 20 20 20 21 21 21 21 21 21 21 21 22 22 22 22 22 22 23 24
24 22 21 20 20 20 20 21 20 20 21 21 21 21 21 21 21 21 22 22 22 22 22 22 22 21 21 21 22 22 22 22 22 22 23 23 23 23 23 24 24 25 25
26 25 24 23 22 22 22 22 22 22 22 22 22 22 23 23 23 23 24 24 24 24 23 22 23 22 22 22 22 22 22 23 23 24 24 24 24 24 25 26 26 27 28
27 26 26 25 24 24 24 24 24 23 23 23 23 24 24 24 25 24 24 23 24 23 23 22 23 23 23 23 24 24 24 24 24 24 24 25 26 26 26 26 26 27 28
28 27 28 28 27 27 27 26 25 25 25 25 25 25 25 25 25 24 24 23 23 23 23 23 24 24 24 24 25 25 24 24 24 24 25 25 26 27 27 27 28 29 29
30 30 29 29 29 29 29 28 28 27 27 27 26 27 26 26 25 26 25 24 24 24 25 25 25 25 25 25 25 26 26 26 26 26 26 27 27 28 28 29 30 30 31
32 32 32 31 31 31 31 31 31 30 29 28 28 28 28 27 27 26 26 26 26 26 26 26 26 26 26 26 27 27 27 27 27 27 28 29 30 30 30 31 32 32 32
34 34 34 34 33 33 32 32 32 32 32 31 31 30 30 29 29 28 28 28 28 28 27 27 27 27 27 28 28 28 28 29 29 29 30 31 31 31 32 32 33 33 34
35 34 35 35 34 35 34 33 32 32 32 32 32 33 32 31 30 30 31 30 29 28 29 29 29 29 29 30 30 30 31 31 32 32 31 32 32 33 33 34 34 34 35
35 34 34 34 34 34 35 35 35 35 34 34 34 34 33 32 32 32 32 32 31 30 30 31 31 32 32 32 33 33 32 33 33 33 33 34 34 34 35 35 35 36 36

GEFSMW_500_meanwind_186.txt.gz
Wind_Speed
14 14 15 16 16 16 16 17 16 14 13 11 10 9 7 6 5 4 2 1 1 3 3 4 4 4 4 5 5 6 6 6 6 6 6 6 6 7 7 8 8 9 9
12 13 13 14 15 15 15 16 15 14 13 11 10 9 7 6 5 4 3 1 0 1 2 3 3 4 4 5 5 7 7 7 7 7 7 7 8 9 9 10 10 10 10
11 12 13 13 13 13 14 14 14 13 13 12 10 9 8 6 4 3 3 1 0 1 2 2 3 3 4 5 5 6 7 7 8 8 9 9 9 9 10 11 11 11 12
10 11 12 12 13 13 12 13 13 13 12 12 11 8 7 6 5 4 3 2 1 1 2 3 3 4 5 5 6 6 7 8 8 8 8 9 10 10 11 11 11 12 12
9 10 11 12 12 12 12 12 12 12 12 11 11 9 7 6 6 5 4 3 3 2 3 4 4 5 6 6 7 7 7 8 8 9 9 9 10 11 11 11 12 12 13
9 10 11 11 11 11 11 11 12 12 12 12 11 9 8 7 5 4 4 4 3 3 4 5 5 6 6 7 8 8 8 9 9 10 10 11 11 11 11 11 12 13 14
9 10 12 12 11 11 11 11 11 12 12 12 11 9 8 7 6 5 5 4 4 4 4 5 5 6 7 7 8 9 10 10 11 11 11 11 11 12 12 12 13 14 14
8 9 11 11 11 11 10 11 11 12 12 12 11 9 8 8 7 6 6 6 5 5 5 5 6 7 7 8 9 9 10 11 12 12 12 12 12 13 13 13 14 14 14
9 9 9 10 11 11 11 11 11 12 12 11 11 10 9 8 8 7 6 6 6 6 7 7 8 8 8 9 10 11 11 12 13 13 13 13 14 14 14 14 14 15 15
8 9 9 10 11 11 12 11 11 11 11 11 11 10 9 8 8 7 7 7 7 7 7 8 8 9 10 11 11 12 12 13 14 15 15 15 15 15 16 16 16 16 17
8 10 10 11 11 11 12 12 11 11 11 11 11 10 9 8 8 7 7 7 7 8 9 9 10 11 12 12 12 12 13 14 15 16 16 16 16 17 17 17 17 17 18
10 11 11 11 11 12 12 11 11 11 11 11 11 10 10 9 8 8 8 8 9 9 10 10 10 11 12 12 13 13 13 14 15 15 16 17 17 17 18 17 18 18 19
13 12 11 11 11 12 11 11 12 12 12 11 11 10 10 10 10 10 9 10 10 10 11 11 11 12 13 14 14 14 15 16 16 16 17 17 18 18 18 19 19 19 19
13 12 11 12 12 13 12 12 12 12 12 11 11 11 11 12 12 11 11 11 11 12 13 13 14 14 15 15 15 16 17 17 17 17 17 18 18 18 18 18 19 19 19
14 14 13 13 13 14 13 13 14 13 13 13 12 12 13 13 13 13 14 14 14 14 14 15 16 16 16 16 16 17 17 17 17 18 18 18 18 18 19 19 19 20 20
17 16 15 15 15 14 15 15 15 15 15 15 15 14 14 15 15 15 15 16 16 16 17 17 17 18 18 18 18 18 18 18 19 19 19 19 19 19 20 20 20 21 22
19 19 19 19 18 17 16 16 16 16 16 16 16 16 17 17 17 17 17 17 17 18 18 19 20 19 19 19 20 20 20 20 19 19 20 20 20 20 20 21 21 22 22
22 22 22 22 21 20 19 18 18 18 18 18 18 18 18 18 18 18 18 19 19 20 20 21 21 22 22 22 21 21 22 21 21 21 20 20 20 20 21 21 22 23 24
26 25 24 24 24 22 21 21 20 21 20 20 20 20 20 20 19 19 20 20 21 22 22 22 22 22 22 21 22 22 22 22 22 21 21 22 22 22 23 24 24 25 25
28 27 26 27 26 24 23 23 22 23 23 22 22 22 22 22 21 21 21 21 23 23 23 24 23 23 22 22 22 22 22 22 22 22 22 22 23 24 24 24 25 26 26
31 29 28 28 27 27 26 25 24 24 25 25 25 24 24 24 23 23 23 23 24 24 24 25 24 24 23 22 22 23 23 23 23 23 23 23 24 24 24 24 25 25 26
33 32 31 29 29 29 28 28 27 27 27 27 27 26 26 26 25 25 25 25 25 26 25 25 25 25 24 23 23 23 24 24 24 24 24 24 24 24 25 25 25 25 26
34 34 33 31 30 30 30 30 30 29 29 29 29 28 28 28 27 27 27 27 27 27 26 25 25 25 24 24 24 24 24 25 25 25 25 25 26 26 26 26 27 27 27
35 35 34 34 33 32 32 32 32 31 31 31 31 30 30 29 28 29 29 28 28 28 27 26 26 26 25 26 26 25 25 25 26 27 27 28 28 28 28 28 29 29 29
36 36 35 34 34 34 33 33 33 32 32 33 32 32 32 30 29 29 29 29 28 27 27 28 28 29 28 27 27 26 26 27 27 28 29 29 29 29 30 30 30 30 31
35 35 35 35 35 34 34 34 33 34 34 34 34 33 32 32 31 31 30 30 30 29 29 29 30 30 30 29 28 28 28 29 29 30 30 30 30 30 31 31 31 32 32

GEFSMW_500_meanwind_192.txt.gz
Wind_Speed
13 13 13 13 13 14 14 14 14 13 12 10 9 8 7 5 3 3 3 2 2 1 2 3 4 4 5 5 6 6 6 7 7 8 8 8 8 8 8 9 9 10 10
11 11 12 12 13 13 13 13 13 12 12 10 9 8 7 5 3 3 2 2 2 2 3 3 4 4 5 6 6 6 7 7 8 9 9 9 9 10 10 11 11 12 12
10 10 11 11 11 12 12 12 12 12 11 10 9 8 7 5 4 3 2 2 2 3 4 4 4 5 6 6 6 7 7 8 9 10 10 10 11 11 12 13 13 14 14
9 9 10 10 10 11 11 11 12 12 11 11 10 8 7 5 4 4 3 2 2 3 4 5 5 6 6 6 7 7 8 9 9 9 10 11 12 12 12 13 14 14 15
9 9 9 10 10 10 11 11 12 12 12 11 10 9 8 7 6 5 4 3 4 4 4 5 5 6 7 7 8 9 10 10 10 10 11 12 13 12 13 14 14 15 15
9 9 9 10 10 10 11 11 11 12 12 11 10 9 9 8 7 6 6 5 5 5 4 4 5 6 7 8 9 9 10 10 11 12 13 13 14 14 14 15 15 16 16
9 9 10 10 10 10 11 11 11 12 11 11 10 10 9 8 8 7 6 6 6 6 5 5 6 6 7 8 8 8 9 11 12 12 13 14 14 15 15 15 15 16 16
10 10 10 9 10 11 12 12 12 12 11 11 11 11 10 9 8 7 7 7 6 6 6 6 7 8 9 9 9 9 10 11 12 13 14 14 15 16 16 16 17 17 17
11 10 9 9 10 11 12 13 13 13 12 12 11 11 11 9 8 8 8 8 7 6 7 7 8 9 9 10 10 11 12 12 13 14 15 16 16 17 17 18 18 19 19
11 10 10 10 11 12 12 13 14 13 12 12 12 11 10 9 8 8 8 8 8 8 8 9 10 11 11 11 11 12 13 14 15 15 16 16 17 17 18 19 20 20 20
12 13 13 12 12 12 13 13 14 13 12 12 12 11 10 9 8 8 8 9 10 10 11 11 12 12 12 13 13 14 15 15 15 15 16 17 17 18 19 20 20 21 21
14 14 13 13 13 13 13 13 14 13 12 12 12 11 10 9 9 9 9 10 10 11 12 13 14 14 14 14 15 15 16 16 16 17 17 18 18 19 20 20 21 22 23
16 15 14 14 14 14 14 14 13 13 13 13 13 12 11 11 11 11 11 12 12 12 13 14 15 15 16 16 16 17 17 18 18 18 18 19 20 20 21 21 22 23 23
18 17 16 16 16 15 15 15 15 14 14 14 13 13 13 13 13 13 14 14 14 14 14 14 15 17 18 18 18 19 20 20 20 20 20 21 21 21 22 22 22 23 24
18 17 17 17 16 15 15 15 15 15 15 15 14 14 14 15 15 15 15 15 16 16 16 16 17 18 19 20 21 21 21 22 22 22 22 22 22 22 23 23 23 23 23
20 19 18 18 17 16 16 16 16 16 16 16 16 16 17 18 18 17 17 18 18 18 18 18 19 19 20 20 21 22 23 23 24 23 22 22 22 22 23 23 23 23 24
22 21 21 19 19 17 17 17 17 18 18 19 19 19 19 20 20 20 20 20 19 19 19 19 20 21 22 22 23 23 23 23 23 23 23 22 22 23 23 24 24 24 25
22 22 22 21 20 20 20 20 20 20 20 21 22 21 22 22 22 23 23 22 20 20 20 21 22 22 23 23 24 24 24 23 23 23 23 23 24 24 24 25 25 25 26
25 24 24 24 23 23 22 22 22 22 23 23 23 23 24 24 24 24 24 23 21 21 22 23 23 24 24 24 24 25 24 24 24 24 24 24 25 25 26 26 27 27 27
27 27 27 26 25 25 24 24 25 25 25 24 24 24 24 24 24 24 23 23 23 23 24 25 25 25 25 25 25 26 25 25 24 24 24 25 26 26 26 27 27 27 27
29 29 29 29 28 28 27 26 26 26 27 26 26 25 25 24 24 24 24 24 25 25 25 26 27 26 27 27 27 27 26 25 25 25 25 25 26 26 27 27 27 27 27
31 30 30 30 30 30 29 29 29 28 29 29 28 27 26 26 25 25 25 26 26 27 27 27 27 28 27 27 27 27 26 25 25 25 25 26 27 27 28 28 28 28 28
33 33 33 31 31 32 32 31 31 32 31 31 30 29 28 28 28 27 27 27 27 28 28 28 29 29 28 28 28 27 26 25 25 26 26 27 27 28 28 29 29 29 29
35 34 34 33 33 32 33 32 31 31 32 32 32 32 30 29 29 28 28 28 29 29 29 29 29 30 30 29 29 28 26 26 27 28 28 28 29 29 29 29 29 30 30
35 35 34 34 32 32 33 33 32 33 33 33 33 32 31 29 29 29 29 30 30 30 30 30 30 30 30 30 30 28 28 28 29 29 30 30 30 30 30 31 31 31 31
36 36 35 35 33 32 32 33 34 34 33 33 33 32 30 29 30 30 31 31 32 32 32 32 32 32 31 31 31 30 30 31 31 31 31 31 31 32 32 33 33 33 33

GEFSMW_500_meanwind_198.txt.gz
Wind_Speed
11 12 12 13 14 13 14 13 12 12 12 10 9 8 7 7 5 4 3 3 2 1 2 2 3 4 4 5 6 6 6 6 7 7 7 7 7 7 8 8 8 9 9
11 11 11 12 12 12 13 13 12 12 11 10 9 8 8 7 6 5 4 3 3 2 2 2 3 3 4 5 6 6 7 7 7 7 8 8 9 9 10 10 10 10 11
11 10 11 12 12 11 12 12 12 12 11 10 10 9 8 7 6 5 4 4 4 3 3 3 3 3 5 6 7 7 8 8 8 8 8 9 10 11 11 11 11 12 12
10 9 10 11 11 10 11 11 12 11 11 10 10 9 8 7 6 5 5 5 4 4 4 4 3 3 4 6 7 8 9 9 9 9 9 10 10 11 11 12 12 13 14
11 9 9 9 9 10 10 11 11 11 11 11 10 9 8 7 7 6 6 6 5 4 4 4 4 4 5 6 8 9 9 10 10 10 10 11 11 11 11 12 13 14 14
11 10 9 9 10 10 10 11 11 10 10 10 9 9 8 7 7 7 7 7 6 6 5 5 5 5 6 6 7 8 9 9 10 11 11 12 12 12 13 13 14 15 15
11 10 10 10 11 10 11 11 11 11 11 10 10 9 9 8 8 8 7 7 7 6 6 6 6 6 7 8 8 9 9 10 10 11 11 11 12 13 14 14 15 15 16
11 11 11 11 11 11 11 11 11 13 12 11 11 10 9 9 8 8 8 8 7 7 7 7 8 8 8 8 9 9 10 10 11 12 12 13 14 14 15 15 16 16 17
12 12 12 11 12 12 12 11 12 12 12 12 11 11 10 9 9 9 8 8 8 8 7 8 8 9 9 9 9 9 10 10 12 14 15 16 16 16 16 16 16 17 17
13 13 12 12 13 13 13 12 12 12 12 12 12 12 11 10 10 10 9 9 9 9 9 9 9 10 10 10 11 11 12 13 13 14 16 17 18 18 18 17 17 17 17
14 14 14 15 15 15 15 14 13 12 13 13 13 12 11 10 10 10 10 10 10 10 10 11 11 11 12 13 14 14 14 15 15 16 16 17 18 18 18 19 19 19 19
15 15 16 17 17 16 16 16 15 15 15 14 13 12 11 11 10 11 11 11 11 11 12 12 13 12 13 14 15 16 16 17 17 18 18 18 18 19 20 20 20 21 21
17 17 17 17 17 17 16 16 16 15 14 14 14 13 12 12 12 12 12 12 12 12 13 13 14 15 15 16 16 17 18 18 19 19 19 20 21 21 22 22 22 22 23
19 19 18 18 18 18 17 17 17 17 17 16 16 15 14 13 13 13 14 14 14 15 15 15 16 17 18 18 18 18 19 20 20 21 21 22 22 23 23 24 24 24 24
21 20 20 20 20 20 19 19 18 18 18 18 18 17 16 16 15 15 15 16 16 17 17 17 18 18 18 19 19 20 20 21 21 22 22 23 24 24 24 25 25 24 25
22 22 22 22 22 22 21 21 19 19 18 19 19 19 18 18 18 17 18 18 18 18 18 19 19 19 19 20 20 21 22 22 22 23 23 23 24 24 24 24 25 26 25
23 23 23 23 23 23 23 22 20 20 20 20 20 20 19 20 20 20 20 20 20 19 20 20 20 21 21 21 21 22 23 22 23 24 24 24 25 24 24 25 25 25 25
24 25 25 24 24 25 24 24 22 22 22 22 22 22 21 21 22 22 22 23 23 22 21 21 21 22 22 23 23 24 24 24 24 24 25 26 26 25 26 26 26 26 26
26 27 27 27 26 26 26 26 25 25 24 24 24 25 25 24 25 24 23 24 24 23 23 23 24 23 24 24 24 24 24 25 25 25 26 27 27 27 27 27 27 27 27
29 29 30 29 29 29 29 28 28 28 28 28 28 26 26 27 26 25 25 25 25 26 25 25 25 25 25 25 25 25 25 26 26 27 27 28 28 28 28 28 28 28 27
31 31 31 31 30 30 30 30 30 30 30 30 30 29 28 28 28 28 28 28 27 27 27 27 27 26 27 27 27 27 27 27 27 28 28 28 28 28 28 28 28 28 27
33 32 32 32 32 32 31 31 31 31 31 31 31 30 30 31 31 31 30 29 29 29 28 29 29 28 28 28 28 27 28 29 29 29 28 28 28 28 28 29 28 28 28
34 33 33 34 33 34 34 33 33 33 34 33 33 33 33 32 32 32 31 30 30 30 31 31 30 30 29 29 29 29 29 30 29 29 28 29 29 29 29 28 27 28 28
35 35 35 35 35 35 35 36 35 35 36 35 36 34 34 33 32 33 32 31 31 31 31 31 31 30 30 30 30 30 30 29 29 29 29 30 30 30 29 29 29 29 30
36 36 37 37 37 36 37 37 37 38 37 37 37 36 36 35 35 34 33 33 33 33 33 33 32 31 31 31 31 31 31 31 31 30 30 30 30 31 31 31 31 31 32
35 36 36 37 37 37 37 38 38 38 38 38 37 37 37 36 36 36 35 35 35 35 34 34 33 33 33 33 32 32 32 32 32 32 31 31 31 31 32 32 32 32 32

GEFSMW_500_meanwind_204.txt.gz
Wind_Speed
12 13 13 14 15 15 15 15 14 14 13 12 12 11 10 10 8 8 6 5 5 4 3 3 3 3 3 4 5 6 6 7 7 7 7 7 7 7 7 7 8 8 8
11 12 12 13 13 13 13 14 14 14 14 13 12 11 11 10 8 7 7 6 6 5 4 3 3 3 4 4 5 6 7 7 7 8 8 8 9 9 9 8 9 9 9
10 11 11 11 12 12 13 13 13 14 14 13 13 12 11 10 9 8 7 6 6 6 6 5 4 4 4 5 5 6 7 7 8 9 9 9 9 10 10 10 10 10 10
9 10 10 10 11 12 12 12 13 13 14 13 12 12 11 11 9 8 8 7 7 6 6 5 5 4 5 5 6 6 7 7 8 9 10 10 10 10 10 11 11 12 12
10 10 10 10 11 12 12 12 13 13 13 13 12 12 12 11 10 9 8 8 7 7 7 6 5 5 6 6 6 6 7 8 8 8 9 10 11 11 12 12 12 13 13
11 11 11 11 11 12 12 12 12 13 13 13 13 13 12 11 10 9 8 8 8 7 7 7 6 6 6 6 6 6 7 8 8 9 10 11 11 12 12 12 13 13 14
12 12 12 12 12 12 12 12 12 13 14 14 13 13 12 12 11 10 10 9 8 8 8 7 8 7 7 7 7 8 8 8 9 10 10 11 12 13 13 14 14 15 15
14 14 13 13 12 12 12 11 12 13 14 14 13 13 13 13 12 12 11 10 9 9 8 8 8 8 8 8 8 9 9 10 10 10 11 12 13 14 14 15 15 16 16
16 15 14 13 13 13 13 13 13 13 14 15 14 13 13 13 13 12 11 11 11 10 9 9 9 9 9 9 10 10 10 10 11 12 13 13 14 15 16 16 17 17 17
18 17 15 15 14 14 14 14 14 14 14 14 14 13 13 13 13 12 12 12 11 11 11 11 11 11 10 10 11 11 11 12 13 13 14 15 16 16 17 17 18 18 18
19 17 16 15 15 16 16 15 15 15 15 15 15 14 14 14 13 13 12 13 13 13 12 12 12 12 12 12 13 13 13 13 14 15 15 16 16 16 17 17 18 18 19
20 18 18 16 16 17 18 18 17 17 16 16 16 16 15 15 14 14 14 14 14 14 14 13 13 13 13 14 14 15 15 15 15 16 16 16 17 17 17 18 19 20 20
20 21 21 18 18 19 19 19 19 18 17 17 18 18 17 16 16 16 15 16 16 16 16 15 15 15 15 15 15 16 16 17 17 18 18 18 18 19 20 20 21 22 22
22 23 23 22 22 22 21 21 21 20 20 19 19 19 18 17 17 17 18 18 18 18 18 17 17 17 17 17 17 18 18 18 18 19 19 19 20 20 21 22 22 23 24
24 24 25 25 25 24 23 23 23 23 22 21 20 20 20 19 20 20 20 19 20 20 20 19 19 19 19 19 19 19 19 20 20 20 21 21 21 21 23 23 24 25 25
26 26 26 27 27 26 25 24 24 24 23 22 21 21 22 22 22 22 22 22 21 21 21 22 22 22 21 21 22 22 22 22 23 23 22 23 23 23 24 25 26 26 26
27 27 27 28 28 28 27 25 25 24 24 24 23 24 23 23 23 23 23 23 22 22 23 24 24 24 24 24 24 24 24 24 25 25 26 26 25 25 25 26 26 27 27
28 28 28 28 29 29 28 27 27 25 25 25 25 25 26 25 26 25 25 25 25 25 25 25 25 25 26 26 26 26 26 26 27 28 28 28 28 28 27 28 28 28 28
29 29 29 29 30 30 30 29 28 28 28 27 27 26 27 27 27 27 27 27 27 27 28 27 27 27 27 27 27 27 28 28 29 29 28 29 28 28 28 29 29 30 29
30 29 29 30 30 30 30 30 30 30 30 30 29 29 28 28 29 29 29 29 30 30 30 30 29 28 28 28 28 28 29 29 30 29 28 29 29 30 30 30 30 30 29
30 31 31 31 31 31 31 31 31 31 31 31 31 31 31 31 31 30 30 30 31 31 30 30 29 29 29 29 29 29 30 30 30 31 30 30 30 31 31 31 31 30 30
32 32 32 32 32 32 32 32 32 32 32 32 32 32 33 33 33 32 32 32 32 32 31 31 30 30 30 30 29 30 30 31 32 32 33 32 31 31 31 31 31 31 30
34 34 34 34 34 34 34 34 33 33 33 33 33 33 34 34 34 34 34 34 34 33 33 33 31 30 30 30 31 32 32 32 33 33 33 33 33 32 32 32 32 32 32
37 36 36 36 36 36 36 36 35 35 35 35 34 34 35 35 35 35 35 35 35 35 35 34 32 31 31 32 32 32 33 33 33 33 33 33 34 33 33 33 33 34 34
37 38 38 38 38 37 37 37 38 38 37 37 36 36 37 37 37 37 37 37 37 37 37 36 35 35 34 33 34 34 34 35 34 34 34 34 35 35 35 35 35 35 35
38 38 38 38 38 38 37 37 38 38 37 37 37 38 38 38 38 38 38 38 38 38 38 38 37 37 36 36 36 37 37 36 36 36 36 36 36 36 36 36 36 36 36

GEFSMW_500_meanwind_210.txt.gz
Wind_Speed
11 12 12 12 13 13 14 14 13 12 12 12 11 10 10 9 8 7 6 5 3 2 2 1 2 1 1 3 4 5 5 6 6 7 8 9 8 9 10 10 10 10 10
9 10 10 10 11 12 13 13 12 12 11 11 11 10 10 9 8 7 6 5 4 2 2 1 1 1 2 3 4 4 5 6 6 7 8 8 9 9 10 10 10 11 11
8 9 9 9 10 11 12 12 12 11 10 10 10 10 10 9 9 8 7 5 4 4 3 3 3 3 3 4 5 5 5 6 7 7 8 8 9 10 10 11 11 12 11
8 8 8 8 9 9 10 11 11 11 10 10 9 9 9 9 8 8 7 6 5 5 4 4 3 3 4 4 5 5 5 6 6 7 8 9 10 11 11 11 11 12 12
7 7 6 7 7 9 10 10 11 11 10 10 9 9 9 9 8 8 8 7 5 5 5 5 4 4 4 5 5 5 5 5 6 7 8 8 9 11 12 11 12 12 12
8 7 7 7 7 9 9 10 10 10 11 10 10 9 8 8 8 8 8 7 6 5 5 5 5 5 5 5 6 6 7 6 7 7 8 8 9 10 11 12 12 13 13
8 8 8 8 8 8 9 10 10 10 10 10 10 9 8 8 8 8 7 7 6 6 7 6 5 5 5 5 6 6 7 8 8 8 9 9 9 10 11 11 12 13 14
9 8 9 8 8 9 9 9 10 10 10 10 10 9 9 8 8 7 8 8 8 7 7 6 6 6 6 6 6 7 7 8 8 9 10 10 10 10 10 11 12 13 14
10 10 11 11 10 9 9 10 11 11 11 11 11 10 10 9 9 8 9 9 8 8 7 7 7 7 7 7 7 8 8 8 9 9 10 11 11 11 11 12 13 13 15
14 14 14 12 12 11 10 10 11 12 11 12 11 10 10 10 10 9 9 9 9 8 8 8 8 8 9 9 9 9 10 9 9 10 10 11 11 12 12 12 13 14 15
14 15 14 13 14 14 14 13 13 13 12 12 12 11 11 11 11 11 10 10 10 10 9 9 9 9 10 10 10 10 10 10 11 11 11 12 12 13 13 14 14 15 16
16 16 16 16 15 16 16 16 15 14 14 13 13 13 14 13 13 13 13 13 12 12 11 12 12 11 11 11 11 11 12 12 12 12 13 13 14 15 15 15 16 17 18
16 17 18 18 18 18 18 17 16 16 16 15 14 15 15 15 16 16 16 15 14 13 13 13 14 13 13 13 13 13 13 13 13 13 14 15 16 16 17 17 19 19 20
17 19 20 21 21 20 20 19 18 18 17 16 17 17 17 17 17 17 16 17 16 16 15 15 15 15 15 15 15 15 15 14 15 15 16 16 17 18 19 19 20 21 22
20 22 23 23 22 21 21 21 20 20 19 19 19 19 19 19 19 19 18 18 18 18 18 17 16 16 16 16 16 16 16 16 16 17 17 19 19 20 20 21 22 22 22
24 24 24 24 24 23 23 23 22 23 21 21 21 20 21 20 21 20 20 19 19 19 18 19 18 17 17 17 18 18 18 18 19 19 20 21 21 22 22 23 23 23 23
26 26 25 26 25 24 24 24 24 24 23 23 23 23 23 22 22 22 22 21 21 20 19 19 19 19 19 19 20 21 21 21 21 22 22 23 24 24 25 25 25 25 25
28 27 27 26 25 25 25 26 27 26 25 25 25 25 25 25 24 24 23 22 21 21 21 21 22 22 21 21 22 22 23 23 23 24 24 24 25 26 26 26 26 26 26
27 27 27 27 26 25 26 26 27 27 26 26 26 26 27 26 25 24 25 24 23 23 23 24 24 24 24 24 24 25 25 26 25 26 26 26 26 26 27 26 26 26 26
30 30 29 28 28 28 27 27 28 28 28 28 28 28 28 27 27 26 26 25 25 25 25 26 26 26 25 26 26 26 27 26 26 26 26 26 26 27 27 26 27 27 27
32 32 32 31 31 31 30 30 29 29 29 29 29 29 28 28 27 27 27 27 27 26 26 26 27 27 27 27 28 28 27 27 28 28 28 28 28 28 27 27 27 27 28
35 35 34 34 34 33 32 32 31 30 30 31 30 30 29 29 29 29 29 29 29 28 28 29 29 28 28 28 29 29 29 29 29 28 28 29 29 29 29 29 29 29 29
36 36 37 36 36 35 34 33 33 32 31 31 31 30 30 31 31 32 32 31 31 31 31 31 31 31 31 31 31 31 31 31 31 30 29 30 30 30 29 29 30 30 30
38 38 38 38 37 37 35 35 34 33 33 33 32 32 32 33 34 34 33 34 34 35 35 34 34 34 33 33 32 32 32 32 32 31 31 31 31 31 31 31 32 32 32
37 37 37 37 37 37 36 36 36 36 35 35 34 34 34 35 35 36 35 35 35 36 36 35 35 36 35 33 33 33 32 32 32 32 32 33 33 33 33 33 33 33 33
37 36 36 36 36 36 37 38 38 37 37 36 36 36 37 38 38 38 37 37 37 37 36 36 36 36 36 35 35 34 33 33 34 34 35 35 35 35 35 35 35 34 34

GEFSMW_500_meanwind_216.txt.gz
Wind_Speed
7 7 8 9 11 11 11 11 11 11 11 10 10 9 8 7 6 6 5 4 3 3 2 3 3 3 3 5 5 5 7 7 7 7 7 7 8 8 9 10 10 11 10
6 6 6 7 8 9 9 10 11 11 10 10 10 9 8 7 7 6 5 5 4 3 3 3 3 4 4 4 5 5 6 7 8 8 8 8 8 9 9 10 11 11 12
5 6 6 6 6 7 8 8 9 10 10 10 10 9 9 7 6 6 5 5 5 4 3 3 4 4 5 6 6 6 6 8 8 9 9 9 10 10 10 10 11 12 12
5 5 5 5 5 6 6 8 8 9 9 10 9 9 8 8 7 6 5 5 5 4 4 4 5 5 6 6 6 7 7 7 7 9 9 10 10 11 10 11 12 13 13
6 6 6 6 6 6 6 7 7 8 8 9 8 9 8 8 8 7 6 5 5 5 5 5 5 5 6 6 6 7 7 7 8 8 9 9 10 10 11 12 13 12 13
8 7 7 7 7 7 7 7 7 8 8 8 8 8 8 8 8 7 6 6 6 6 6 6 5 6 6 7 7 7 7 8 9 9 9 10 11 11 12 12 13 13 13
9 9 9 9 9 8 8 9 8 8 9 9 8 8 8 9 8 8 7 7 7 7 7 7 6 6 7 7 7 7 7 8 9 9 10 10 10 11 11 11 12 12 13
12 11 10 10 10 10 10 10 9 9 9 10 10 9 9 9 9 9 8 8 8 8 8 8 8 8 8 8 8 8 8 9 9 9 10 10 10 10 11 11 12 12 13
13 13 11 10 11 11 11 10 10 11 11 11 11 11 10 10 10 9 9 9 9 9 9 10 10 9 9 10 9 9 9 9 10 10 10 11 12 12 13 13 13 13 14
14 14 13 12 12 13 13 11 10 11 12 13 13 13 13 13 12 11 11 11 11 11 11 11 11 11 11 11 11 11 11 11 10 11 11 12 13 13 14 15 15 15 15
15 15 14 14 15 15 14 13 13 13 13 14 14 15 15 14 13 13 13 14 14 14 14 13 13 13 13 12 12 13 13 13 13 13 13 14 15 15 15 16 17 17 17
17 17 16 16 16 17 16 16 16 15 15 15 16 16 16 16 15 15 16 16 16 17 17 16 16 15 15 15 15 14 14 15 15 15 15 16 17 17 18 18 19 19 19
18 19 18 17 17 17 18 18 17 18 17 17 18 18 17 17 17 17 18 19 19 20 20 20 19 18 18 17 17 17 17 17 17 18 18 19 19 19 20 20 20 21 21
19 19 19 18 18 18 18 18 19 19 19 19 19 20 20 19 19 20 20 21 21 21 21 21 21 21 20 20 20 19 19 20 20 20 20 21 21 20 21 21 22 22 23
19 20 20 20 19 19 19 20 21 21 20 20 20 21 21 22 22 23 23 23 22 22 22 21 22 22 21 21 21 21 21 21 22 22 23 23 23 22 22 23 23 24 24
21 21 20 19 19 20 20 21 21 21 21 21 22 23 23 24 24 24 24 23 24 23 23 22 21 22 22 22 23 23 23 23 23 24 25 25 24 24 24 25 25 25 25
23 22 21 20 21 22 23 22 23 23 24 24 24 24 24 24 24 25 24 24 25 25 25 25 24 24 24 24 24 24 24 24 24 24 25 25 25 26 26 27 27 28 28
25 24 24 23 24 25 26 26 25 26 26 26 26 25 25 25 26 26 26 26 26 26 26 26 26 27 26 26 26 25 25 24 25 25 24 26 27 27 28 28 29 29 28
27 27 27 27 27 28 28 28 28 28 28 27 27 27 27 27 26 27 27 27 27 26 26 26 27 27 27 27 27 27 26 26 27 27 27 27 28 29 29 29 30 30 30
30 30 30 29 29 30 29 30 30 29 28 28 29 29 29 28 28 28 28 28 28 27 26 26 26 27 27 27 28 28 28 28 28 29 29 29 30 30 31 31 31 31 31
31 32 32 31 32 33 32 30 30 29 29 29 29 30 30 30 30 29 29 29 30 29 28 28 28 28 29 30 30 30 30 30 29 29 30 30 30 30 31 32 32 31 32
32 32 33 33 34 34 33 32 31 30 31 32 32 32 32 32 32 32 31 31 31 31 31 31 31 31 31 32 32 32 32 32 32 32 32 33 33 32 32 32 32 33 33
35 35 35 35 35 35 35 34 33 33 33 34 34 34 34 34 34 33 33 32 32 32 32 32 32 33 34 34 34 33 32 32 32 32 32 33 34 34 34 34 34 34 34
37 37 37 38 36 36 36 35 35 35 35 35 35 36 36 36 36 35 35 35 34 33 33 33 34 34 35 34 34 34 32 33 34 34 34 34 34 35 35 35 35 35 35
37 37 37 37 36 35 36 37 37 37 37 36 37 37 37 37 37 37 37 37 36 35 35 34 34 35 35 35 36 35 34 34 35 36 36 36 36 36 36 36 35 36 35
38 37 37 37 36 36 36 36 37 37 37 37 37 38 37 37 37 36 36 35 36 36 36 35 35 35 35 34 35 35 35 36 36 36 37 37 37 37 37 36 36 36 36

GEFSMW_500_meanwind_222.txt.gz
Wind_Speed
7 7 8 8 8 8 8 8 8 8 8 8 8 7 7 6 5 4 4 3 3 3 2 2 2 3 4 5 6 7 8 8 8 9 10 10 10 10 9 9 10 10 11
5 6 6 7 7 7 7 7 7 7 8 8 7 7 7 6 5 5 4 4 4 4 3 3 3 4 5 6 7 7 8 9 9 9 11 11 11 11 11 10 10 10 11
5 5 6 6 6 6 6 6 6 7 8 7 7 6 7 6 6 6 5 5 5 5 4 4 4 5 5 6 7 8 8 9 9 9 10 11 12 12 12 12 11 11 11
6 7 6 6 6 6 7 6 6 6 7 8 7 6 7 7 7 6 6 6 6 5 5 5 5 5 5 6 6 8 8 9 9 10 10 11 12 12 12 12 12 12 12
8 8 8 7 7 7 7 8 7 7 7 7 7 7 7 7 7 7 7 7 6 6 6 6 6 6 6 7 7 7 7 7 8 8 9 9 10 11 11 11 12 12 13
10 10 9 9 8 8 9 9 9 9 9 9 8 8 8 8 8 7 7 7 7 7 7 7 8 8 8 8 8 8 8 8 8 9 9 10 10 11 11 11 12 12 12
13 13 12 11 10 10 10 10 10 10 10 10 10 9 9 9 9 9 8 8 8 9 9 9 9 9 9 9 9 9 9 9 9 9 9 10 11 11 12 12 12 12 13
13 14 14 13 12 12 12 12 12 12 11 11 11 10 10 10 10 10 10 10 10 10 11 11 11 11 11 11 10 10 10 10 10 11 11 11 11 12 12 12 12 13 13
15 15 15 15 15 15 14 14 14 13 13 13 12 13 12 11 12 11 12 11 11 11 11 12 12 12 12 12 12 12 12 12 12 12 13 13 13 13 13 13 13 13 14
17 17 17 17 17 17 16 16 16 15 14 14 14 14 14 14 14 13 13 13 13 13 13 13 13 13 13 14 15 15 15 15 14 15 15 15 15 15 15 15 15 15 16
19 19 18 18 18 18 18 18 18 17 17 16 16 16 17 17 16 15 15 14 14 15 14 14 15 14 15 16 17 17 17 17 17 17 17 17 17 17 17 17 17 17 17
20 20 20 20 20 20 20 20 20 19 19 18 18 19 19 19 19 17 16 16 17 17 16 16 16 17 17 18 18 18 18 18 18 18 19 19 19 20 19 19 20 20 19
22 21 21 21 22 22 22 22 22 20 20 20 20 20 21 21 20 19 19 19 19 19 19 19 19 19 19 19 19 19 20 20 20 20 20 21 21 22 22 22 22 22 22
23 22 22 22 22 23 24 23 23 22 22 21 21 22 22 22 21 21 21 21 22 22 21 22 22 21 21 21 20 21 22 22 22 22 22 22 22 22 23 23 23 23 24
23 23 23 24 23 23 23 24 24 24 24 24 23 24 24 23 23 23 23 23 24 24 24 24 23 23 23 23 22 23 24 24 24 24 23 23 23 24 24 24 24 25 25
23 23 23 24 24 24 24 24 25 25 25 25 25 25 25 25 25 25 25 25 26 26 25 25 24 24 24 24 24 24 25 25 26 26 25 26 26 26 26 26 26 26 26
25 25 24 24 23 24 24 25 25 25 26 27 26 27 27 27 28 27 27 27 27 26 26 25 25 25 24 25 25 25 26 26 26 26 26 27 27 27 27 27 27 27 28
26 26 26 26 25 25 26 26 27 28 29 29 29 29 29 29 29 29 28 27 27 27 27 26 27 26 26 26 27 27 27 26 26 27 27 28 28 28 28 29 29 29 29
28 27 28 28 28 28 28 28 29 30 32 31 31 31 31 31 31 31 30 29 29 28 28 28 28 27 27 27 28 28 29 28 28 28 28 29 29 30 30 31 31 31 31
30 30 30 30 30 30 30 30 30 31 31 32 32 32 32 32 32 32 31 30 30 30 30 29 29 29 29 29 30 30 31 30 29 29 29 30 31 32 32 33 33 33 32
31 32 32 31 31 30 31 31 31 32 32 32 33 34 34 34 33 33 32 33 32 32 31 31 30 30 31 32 32 32 32 31 31 32 32 32 33 33 34 34 34 34 35
31 32 32 31 31 31 32 32 33 33 33 34 34 35 34 34 33 34 33 34 33 33 33 32 32 31 32 33 34 34 33 34 34 34 35 35 35 36 36 35 35 35 36
33 33 33 32 32 33 33 34 34 34 35 35 34 34 34 34 34 34 33 33 34 34 34 34 34 34 34 35 35 35 35 35 36 36 37 37 36 36 35 35 35 36 36
34 34 34 34 35 35 35 35 36 36 37 36 36 35 35 35 35 35 34 34 35 35 35 35 35 35 35 36 36 35 36 36 36 36 36 36 36 36 37 37 37 37 37
33 34 34 34 34 35 36 37 37 37 38 37 36 36 36 35 36 36 35 35 35 35 36 36 36 36 36 36 36 36 36 36 36 36 37 37 37 37 38 38 38 38 38
34 35 35 35 36 36 37 37 37 38 38 38 38 37 35 36 36 36 36 36 36 37 37 38 38 37 37 37 36 36 36 37 36 36 36 37 37 37 37 38 38 37 37

GEFSMW_500_meanwind_228.txt.gz
Wind_Speed
9 9 9 9 9 9 10 10 10 10 11 11 10 10 9 8 8 7 6 5 5 4 4 4 3 4 4 5 5 6 6 6 7 8 8 9 9 9 9 10 10 10 11
9 10 10 9 9 9 10 10 10 10 11 11 11 10 9 9 9 8 7 6 5 4 4 4 3 4 5 5 5 6 7 7 7 7 8 8 9 9 9 9 10 10 11
10 9 9 8 9 9 10 10 11 10 10 11 11 11 10 10 9 9 8 7 6 6 5 5 6 6 6 6 6 7 7 7 8 8 9 9 10 9 10 10 11 11 11
12 11 9 8 9 9 10 10 10 10 10 10 10 11 10 10 10 9 8 8 7 7 7 7 7 7 7 6 7 7 7 7 7 8 9 9 10 10 10 11 11 11 12
12 11 11 10 9 9 9 10 10 10 10 10 11 11 11 11 11 10 9 9 9 8 9 8 8 8 7 7 8 8 8 8 8 8 8 8 9 9 10 10 11 11 11
13 12 12 11 11 10 10 11 11 11 11 11 11 12 12 11 11 11 10 10 10 10 10 10 10 9 9 8 8 8 8 9 8 8 8 8 9 9 9 10 11 11 11
14 13 13 13 13 12 12 12 12 12 12 12 12 12 12 11 11 11 11 11 10 11 11 11 11 11 11 10 10 10 9 9 9 9 9 9 10 10 11 11 12 12 12
15 14 13 14 14 14 13 13 13 13 14 13 13 13 13 12 12 12 13 13 12 12 12 12 12 12 13 12 12 11 11 10 10 10 11 11 11 12 12 13 13 13 13
17 17 16 16 16 16 15 15 15 15 15 15 14 14 13 13 13 14 14 15 14 14 13 13 13 14 13 13 13 13 12 12 12 12 13 13 13 14 14 14 15 14 14
19 19 18 18 17 17 17 17 17 16 16 16 16 15 14 14 14 15 16 16 16 16 15 14 15 15 14 14 14 14 14 14 14 14 14 15 15 15 15 15 16 16 16
21 21 20 21 19 19 19 19 19 18 18 18 17 16 16 15 16 17 17 17 17 17 17 16 16 16 16 16 16 16 16 16 16 16 16 17 17 17 17 17 17 18 18
22 22 22 22 21 21 21 21 21 20 20 20 19 19 17 17 18 19 19 19 19 18 18 19 19 18 18 18 18 18 18 18 18 18 18 18 19 18 19 19 20 20 20
25 25 25 24 22 22 23 22 22 22 21 20 20 20 20 19 20 20 21 21 21 20 21 21 20 20 20 20 20 20 20 20 20 20 20 20 20 19 20 21 21 22 22
25 26 26 26 24 24 24 24 23 23 22 21 21 22 21 22 22 22 23 23 22 22 23 22 22 22 22 21 22 22 22 22 22 22 22 23 22 22 22 22 23 23 23
27 25 26 27 26 25 25 25 24 24 24 23 23 24 24 24 24 24 24 25 24 24 24 24 24 24 24 24 24 24 24 24 24 24 24 24 25 24 24 24 24 25 25
27 26 25 26 26 26 26 26 26 26 26 25 25 25 26 26 26 26 26 26 26 26 26 25 25 25 25 25 25 25 25 26 25 25 26 26 26 27 26 26 26 27 27
27 26 26 26 27 27 27 27 28 28 28 28 28 28 28 28 28 28 28 27 27 27 26 26 27 27 27 27 27 27 27 27 28 27 27 27 28 28 28 28 28 29 29
27 26 26 28 27 27 28 28 29 30 30 30 30 29 30 30 29 30 29 28 28 28 28 28 29 28 28 29 28 28 28 28 28 28 28 29 29 29 30 31 31 31 31
27 27 28 28 29 29 30 30 31 31 31 31 31 31 32 32 32 31 30 30 30 30 30 30 30 29 28 28 29 29 30 29 29 29 29 30 31 31 32 32 32 32 32
28 28 29 29 30 31 31 31 32 33 33 33 33 33 33 34 34 32 32 32 32 32 32 32 31 30 29 29 30 31 31 31 31 31 31 31 31 32 32 33 34 34 34
30 30 30 30 31 32 33 33 32 33 33 34 34 34 34 34 33 32 32 33 34 34 34 34 32 32 32 31 32 32 32 32 32 32 32 33 33 34 34 35 35 36 36
32 32 32 32 33 33 34 34 34 34 34 35 35 35 35 34 34 34 33 34 34 35 35 34 33 33 33 33 33 34 35 34 34 34 34 34 35 35 36 37 37 37 38
32 32 33 34 34 35 35 36 36 36 36 36 36 36 36 35 34 35 35 35 35 35 35 36 35 34 34 35 35 36 36 36 36 36 36 36 36 37 38 38 38 39 39
32 32 34 35 36 36 36 37 36 37 37 37 37 37 36 35 36 35 35 36 36 35 35 35 34 35 34 35 35 37 37 37 37 37 38 38 38 38 37 37 37 38 38
34 34 34 36 36 36 36 36 36 36 36 36 37 37 37 36 36 36 37 36 36 36 35 36 36 36 36 37 37 38 37 37 37 38 38 38 38 37 37 37 37 38 39
34 35 35 35 36 36 36 36 36 37 37 37 37 37 36 36 36 36 36 35 36 36 36 36 36 36 37 37 38 38 38 38 37 37 37 38 37 37 37 38 37 37 37

GEFSMW_500_meanwind_234.txt.gz
Wind_Speed
10 10 10 9 9 9 9 9 9 10 10 9 9 9 8 8 7 6 6 5 3 2 1 1 1 2 2 3 3 4 6 7 7 8 8 8 9 9 9 8 9 9 9
8 9 9 8 8 8 8 8 8 8 9 9 9 9 8 8 7 7 6 5 4 3 3 2 1 2 2 3 4 4 5 6 7 7 8 8 9 9 9 9 9 9 10
7 7 7 7 7 7 8 7 7 8 8 8 8 9 9 8 7 6 6 5 4 3 3 3 2 2 3 4 5 5 6 6 7 7 8 8 9 9 9 10 10 10 10
6 6 6 6 7 7 7 7 6 7 7 7 7 7 7 8 7 6 6 6 5 4 3 3 3 4 4 5 5 6 6 6 7 7 8 8 8 8 8 9 10 10 10
8 7 6 6 7 7 7 7 6 6 7 7 7 7 6 6 6 6 6 6 6 5 5 5 5 5 5 5 5 6 6 7 6 7 8 8 8 8 8 9 9 9 10
9 8 8 7 8 8 7 7 7 7 7 7 7 7 7 6 6 6 5 5 6 6 6 5 6 6 6 6 6 6 7 7 7 7 7 8 8 9 10 10 11 11 11
11 9 8 8 8 9 9 8 8 8 8 8 8 9 9 8 7 7 6 6 6 6 6 7 7 7 8 8 7 7 7 7 7 7 8 9 9 10 11 11 12 12 12
13 13 10 9 9 9 10 10 10 10 10 10 10 10 10 10 9 8 7 7 7 7 7 7 8 8 9 9 8 7 8 8 8 9 9 10 10 11 11 11 12 12 13
15 15 13 12 11 11 11 12 11 11 11 12 11 11 11 10 10 9 9 9 8 8 8 8 9 9 10 10 10 10 10 11 10 10 10 11 11 12 13 13 13 13 14
17 16 15 14 14 13 14 14 13 13 13 13 13 13 12 11 11 11 11 11 10 9 10 10 10 11 11 12 12 12 12 12 12 11 12 12 13 13 13 14 15 15 15
19 18 16 16 16 16 16 16 15 15 15 15 15 15 14 13 12 13 13 13 12 12 12 13 13 13 13 13 13 13 13 13 13 13 13 13 14 14 14 15 16 16 16
20 19 17 18 18 18 19 19 17 18 17 16 16 16 15 15 15 14 14 14 14 14 15 15 15 15 15 15 15 15 15 15 15 15 15 15 16 16 16 16 16 17 18
21 20 19 19 20 20 21 21 20 20 19 18 19 18 18 18 17 16 16 16 17 17 17 17 17 17 18 18 17 17 17 17 17 17 17 18 18 18 18 18 18 19 19
22 22 22 21 20 21 23 23 23 23 22 21 21 21 20 20 19 19 19 19 19 19 19 20 20 20 20 20 20 20 19 19 19 19 20 20 20 20 20 20 20 20 20
23 22 20 21 22 22 23 24 25 24 23 22 22 22 21 21 21 21 22 22 22 22 22 22 22 22 22 22 22 23 22 22 22 21 22 22 22 22 22 22 22 22 22
27 24 22 22 22 22 23 25 25 25 25 24 23 24 24 24 24 24 24 24 23 23 23 23 23 24 24 24 24 24 24 24 23 23 23 23 23 24 24 24 24 24 24
27 25 23 22 23 24 25 26 27 27 27 26 26 26 25 25 25 26 26 25 25 25 24 24 25 25 25 26 25 25 26 25 25 25 25 25 25 25 25 26 26 26 26
26 25 24 23 24 25 25 25 26 26 26 27 26 27 27 27 27 27 27 27 27 27 27 26 26 27 27 27 27 28 27 27 27 27 27 27 26 26 26 26 27 28 29
26 25 25 25 25 25 26 26 25 25 27 28 29 28 29 29 29 28 28 28 29 30 29 28 28 28 29 29 29 30 29 29 28 28 28 28 28 28 28 29 29 30 30
28 27 26 26 26 26 26 26 27 29 29 29 29 30 31 31 31 31 30 31 31 30 30 31 30 30 30 31 30 31 30 30 30 29 30 31 30 30 30 31 31 31 32
28 27 27 27 27 27 27 28 30 30 30 30 30 30 31 31 32 32 32 31 31 31 31 31 31 31 31 32 31 32 32 31 32 31 31 32 31 31 32 32 32 33 33
29 28 29 29 29 29 30 30 31 32 31 31 31 32 32 32 33 33 32 32 32 31 31 31 32 33 33 33 32 32 32 31 31 31 32 32 32 32 33 33 33 33 34
31 30 31 31 32 32 31 32 33 33 33 32 32 32 33 34 33 33 33 33 33 33 33 31 32 32 34 34 33 33 32 32 32 32 32 32 33 34 34 34 34 34 34
32 33 33 33 33 33 34 34 34 35 35 34 34 34 34 35 34 33 33 33 32 32 33 32 32 31 32 33 33 33 33 33 33 33 33 34 34 35 35 35 34 35 35
33 34 34 34 33 33 34 35 36 36 35 35 35 34 34 35 35 34 33 32 33 33 33 32 32 31 32 33 34 34 34 34 33 34 35 36 36 36 36 35 35 35 35
33 33 33 33 33 33 34 35 35 35 35 35 34 33 34 35 34 34 33 33 33 33 32 32 32 31 32 32 32 32 33 33 34 34 34 35 35 35 35 35 35 35 35

GEFSMW_500_meanwind_240.txt.gz
Wind_Speed
7 7 7 6 6 6 6 6 6 7 7 7 6 6 5 5 4 4 3 2 1 0 2 3 4 4 4 5 5 5 6 7 8 9 10 10 11 11 11 11 11 11 12
5 6 6 6 6 5 6 6 6 6 6 6 6 5 5 4 4 4 3 2 2 1 2 2 3 3 4 5 6 6 7 8 9 10 10 11 11 12 12 12 12 12 12
6 5 5 5 5 4 4 5 5 5 5 5 5 5 5 4 4 4 4 3 3 2 2 3 3 4 5 6 6 8 8 8 9 9 10 10 11 12 12 12 13 12 12
7 7 6 6 6 5 5 5 4 4 5 4 4 4 5 5 5 4 4 4 5 5 4 4 5 5 6 6 7 7 8 8 8 9 10 10 10 11 11 12 13 13 13
9 9 9 9 9 7 6 6 6 5 5 5 5 5 5 6 6 6 5 5 6 6 6 6 6 6 7 8 8 8 9 9 10 10 10 10 10 11 11 11 12 13 13
13 12 11 11 11 10 9 8 8 6 6 6 6 6 7 7 7 7 6 6 7 7 7 7 8 8 8 9 9 9 11 11 12 11 11 11 11 11 12 12 12 13 13
14 14 13 13 12 12 11 10 9 9 8 7 7 8 9 9 8 8 7 7 8 8 8 9 9 10 10 10 11 11 12 12 13 12 12 12 12 13 13 13 13 13 13
16 15 15 14 14 14 14 12 11 11 10 10 9 9 10 10 9 9 9 9 10 10 10 11 11 11 11 12 12 12 12 12 13 13 13 13 13 13 14 14 14 14 14
17 17 16 16 16 16 17 15 14 13 13 12 12 12 11 11 11 10 10 11 11 11 11 11 12 12 12 12 12 12 12 13 13 13 13 14 14 15 15 15 15 15 16
18 18 18 17 17 17 17 17 17 16 16 15 15 14 14 13 13 12 12 12 13 13 12 12 13 13 13 13 13 13 14 14 14 14 14 15 15 15 16 16 16 17 17
19 18 18 18 18 17 18 18 19 20 19 18 17 17 16 15 15 14 14 14 15 15 15 14 14 14 15 15 15 15 15 15 16 16 16 17 17 18 18 18 18 18 19
19 19 18 19 19 19 19 20 21 22 21 21 20 19 18 17 17 16 16 16 17 17 17 17 17 17 17 17 17 18 18 18 18 18 18 19 20 20 20 20 20 21 21
22 21 20 21 20 21 21 21 21 22 23 23 21 20 20 20 19 19 18 18 18 18 18 18 18 19 19 19 20 20 20 20 20 20 20 21 21 22 23 23 23 23 23
23 23 22 22 22 22 22 23 23 23 23 22 22 22 21 21 22 22 21 21 21 20 19 20 20 21 21 21 22 22 22 22 22 22 22 23 23 23 24 24 25 25 25
25 24 24 23 23 23 23 23 23 24 24 24 23 23 23 24 24 24 24 24 23 24 23 23 22 23 23 23 24 23 23 23 24 25 25 25 25 26 26 26 27 26 26
26 24 24 24 24 24 25 25 25 25 25 26 25 24 25 25 25 26 26 26 25 24 24 23 23 24 24 24 25 25 25 25 26 26 27 27 28 28 28 27 28 28 28
26 25 26 26 26 26 25 26 26 25 26 27 26 26 26 27 26 26 27 27 26 24 25 25 25 25 25 24 25 26 27 27 28 28 28 29 29 30 30 29 29 28 28
27 26 25 26 26 26 26 26 26 27 27 27 28 28 27 27 27 27 27 28 28 27 27 27 27 26 26 26 27 28 29 29 29 29 29 30 30 30 31 32 31 31 30
28 26 26 26 26 26 26 27 27 27 29 29 29 28 28 28 28 28 29 29 29 28 29 29 29 29 28 29 30 31 31 32 32 32 32 32 32 32 32 32 32 32 31
28 27 28 28 28 28 28 28 28 28 28 29 30 30 30 30 29 30 30 30 30 30 31 31 31 30 30 31 31 32 33 33 33 33 33 34 34 34 33 32 32 32 32
29 30 30 30 30 30 29 29 29 30 30 31 30 29 29 29 30 31 31 31 32 32 32 31 31 31 31 32 33 33 34 33 33 34 34 34 34 34 34 33 33 33 33
30 31 31 31 31 30 30 30 29 30 30 30 30 30 30 29 30 31 31 32 32 33 33 32 32 32 32 33 34 34 34 34 35 35 35 36 36 35 35 35 35 35 34
30 30 31 30 30 31 31 30 30 30 30 30 30 31 31 32 32 32 32 33 34 34 34 33 33 33 34 34 34 35 35 36 36 37 37 37 37 37 36 36 37 37 36
29 29 29 30 31 31 30 30 30 31 31 30 31 32 32 32 32 32 33 34 34 35 34 34 34 34 34 35 36 36 36 37 37 38 38 38 37 37 37 37 37 37 37
28 28 29 30 30 30 31 31 31 31 31 31 31 32 32 32 32 32 32 33 33 34 34 35 35 35 35 35 36 37 36 36 36 37 36 37 38 38 37 37 37 37 37
27 28 29 30 30 30 30 30 30 30 31 31 31 32 31 30 31 31 31 32 32 33 33 33 34 33 34 35 35 36 36 36 36 36 35 35 36 36 36 37 38 38 37

GEFSMW_500_meanwind_246.txt.gz
Wind_Speed
6 6 7 7 8 7 7 6 5 5 5 4 4 4 3 3 2 2 1 0 1 2 3 4 5 5 5 5 6 6 6 7 7 7 8 8 10 10 11 11 11 12 12
6 6 6 7 7 7 6 6 5 5 5 4 4 3 3 3 2 2 2 1 2 2 3 4 5 6 6 6 7 7 8 8 8 9 9 9 10 11 11 11 11 12 13
6 6 7 7 7 7 6 6 5 5 5 5 4 3 3 3 3 3 3 3 3 3 4 5 6 6 7 7 7 8 8 9 9 10 10 10 11 11 11 12 13 13 14
7 7 7 8 8 8 7 7 7 6 6 6 6 5 4 4 4 4 4 4 4 4 5 6 7 8 8 8 9 9 10 10 10 11 11 11 12 11 11 12 13 14 14
9 9 8 9 9 9 8 8 9 8 8 7 7 6 6 5 6 6 6 6 6 6 6 7 8 9 9 10 10 10 11 12 12 12 12 13 13 13 13 13 12 13 13
11 10 10 10 11 11 10 10 10 10 10 9 9 9 8 9 8 8 8 8 8 8 8 9 9 10 11 11 11 11 12 12 13 13 13 14 14 14 14 13 13 13 13
13 13 12 12 12 13 12 12 12 12 12 11 11 11 11 11 10 10 10 10 10 10 10 10 11 12 12 12 12 13 14 13 14 14 15 15 15 16 16 15 15 15 15
15 14 14 14 14 14 14 14 14 14 14 13 13 13 13 13 13 13 12 11 11 11 12 13 13 13 13 14 14 14 14 15 15 16 17 16 16 16 16 16 16 16 16
17 16 16 16 16 16 16 15 15 16 17 16 15 15 14 14 14 14 14 13 13 14 14 14 15 15 15 15 15 16 16 17 17 18 18 18 17 17 17 16 16 17 17
18 17 17 17 18 18 17 17 17 17 18 18 18 17 17 17 16 16 16 15 15 15 15 16 17 17 18 17 17 18 18 19 19 19 18 18 18 18 18 18 18 18 19
19 19 18 18 19 19 19 19 19 19 20 20 20 19 19 18 18 18 18 17 17 17 17 18 18 18 18 18 18 18 18 18 18 19 20 20 20 19 19 19 19 20 20
20 20 20 20 20 21 21 21 21 21 21 21 21 21 21 21 21 20 20 18 18 18 18 18 18 19 19 19 18 18 19 20 20 20 21 21 21 21 21 21 21 22 22
21 21 21 21 21 22 22 22 22 22 22 23 23 23 23 23 22 22 21 20 19 19 19 19 19 19 20 20 20 20 20 21 21 21 22 23 23 23 23 23 23 23 23
22 22 23 23 23 23 23 23 24 24 24 24 23 23 23 23 23 23 22 21 21 21 22 21 21 20 20 21 21 21 22 22 22 22 22 23 24 24 24 25 25 25 25
24 25 25 25 25 25 25 25 26 26 25 24 24 24 24 24 24 24 23 23 23 22 22 22 23 23 23 22 23 23 23 23 23 24 24 24 25 25 26 26 27 28 28
25 25 26 26 26 26 25 25 25 25 25 25 25 25 25 25 25 25 24 25 24 24 24 24 25 25 25 25 25 25 25 25 25 25 26 26 27 27 28 29 30 30 30
27 27 27 27 27 27 27 26 27 27 26 26 27 26 27 27 27 26 26 26 26 25 26 26 26 27 27 27 27 27 27 27 27 27 28 28 28 29 30 31 32 31 31
27 27 28 28 28 28 28 28 28 28 28 28 29 29 28 28 28 28 28 28 28 28 27 28 28 29 29 29 29 30 29 29 29 29 29 30 30 30 31 32 32 32 33
28 29 29 29 28 28 29 29 29 29 29 29 30 30 31 30 30 30 30 30 30 30 30 30 30 30 30 31 31 32 32 32 31 31 31 31 31 31 31 32 33 33 33
29 29 30 30 29 29 29 30 30 30 31 31 32 31 32 32 32 32 32 31 30 31 32 32 32 32 32 32 32 33 33 32 32 32 32 32 32 32 32 33 34 34 34
30 30 30 31 30 30 31 31 31 31 32 32 32 32 33 33 33 32 32 32 32 32 32 32 32 33 34 34 33 34 34 34 34 33 34 34 33 33 34 34 34 34 35
30 31 31 32 32 32 32 32 32 32 32 32 32 32 33 34 34 33 32 32 33 33 32 33 34 35 35 35 34 34 34 35 35 35 35 35 34 34 35 35 35 35 35
32 31 31 32 32 32 32 32 32 33 32 32 32 33 33 34 33 33 33 33 33 32 33 33 33 34 35 35 35 35 35 36 36 36 36 36 36 35 36 36 36 36 36
32 31 31 31 32 32 32 31 31 31 31 32 32 32 32 33 32 32 32 32 32 32 32 32 33 34 35 35 35 36 35 36 35 35 36 36 36 37 36 36 36 36 37
32 32 31 31 31 31 31 31 31 31 30 30 30 30 31 31 32 32 32 32 31 31 31 32 33 33 33 33 34 34 34 35 35 35 36 37 37 37 37 37 36 36 37
31 31 31 31 31 31 31 31 31 29 29 30 29 28 29 30 30 31 31 31 30 30 31 31 31 31 32 32 32 33 33 33 34 35 36 36 37 37 37 37 37 37 38

GEFSMW_500_meanwind_252.txt.gz
Wind_Speed
8 8 9 9 9 9 9 10 10 9 10 9 8 8 7 6 6 5 5 4 4 4 4 4 4 4 5 5 5 6 6 6 7 8 8 8 9 9 10 9 9 10 10
8 8 8 8 9 9 9 9 9 9 10 9 8 7 7 6 6 6 5 6 5 5 5 6 5 6 6 6 7 7 7 7 7 9 9 9 9 10 10 10 10 10 10
9 9 8 8 8 8 9 9 9 9 10 9 8 8 7 7 7 7 7 7 7 6 6 7 7 7 8 8 8 9 9 9 10 10 10 11 11 10 10 10 10 10 10
11 9 9 8 8 8 9 10 9 9 9 10 9 8 8 8 8 8 8 8 9 8 8 8 8 8 8 9 9 9 10 10 11 12 12 12 12 12 11 11 11 12 12
11 10 10 10 9 9 9 10 10 10 10 10 10 10 10 10 9 9 9 10 10 10 10 9 9 9 9 10 10 10 11 12 12 13 13 13 14 13 13 12 13 12 13
13 11 11 11 11 10 10 10 10 11 11 11 11 12 12 12 11 11 11 11 11 11 11 11 11 10 11 11 12 12 13 13 13 14 14 15 15 15 15 15 14 14 14
15 14 12 11 12 12 11 11 11 12 12 12 13 13 13 14 13 13 12 12 12 12 12 11 12 12 12 13 13 14 14 14 15 15 15 15 15 16 16 15 15 15 15
16 16 15 13 12 13 13 13 13 13 14 14 14 14 14 15 15 14 14 14 14 13 13 13 13 14 14 14 14 14 15 15 16 16 17 17 17 17 17 17 17 16 16
18 17 16 15 14 14 14 15 15 15 15 15 16 15 16 16 16 16 15 15 15 14 14 14 15 15 15 15 16 16 16 16 16 16 17 18 19 19 19 18 18 18 18
19 18 17 16 16 16 16 16 17 17 16 16 16 16 16 16 16 16 16 16 16 15 16 16 16 16 16 16 16 16 16 16 17 18 19 20 20 20 20 19 19 20 20
20 20 19 19 19 19 19 19 19 18 18 17 17 17 17 18 17 17 17 17 17 17 17 17 17 17 17 17 16 16 16 17 17 18 19 20 21 21 21 21 21 21 20
22 22 21 21 21 20 20 20 20 20 20 20 19 19 19 19 19 19 19 19 18 18 18 18 19 19 19 18 17 17 18 18 18 19 19 20 21 21 22 22 22 21 21
24 24 23 22 23 23 22 22 22 22 22 22 22 22 21 21 21 21 21 21 21 20 19 20 20 20 20 20 20 19 18 19 19 20 20 20 21 21 22 22 22 22 22
25 25 25 24 24 24 24 24 24 24 23 24 24 24 23 23 23 22 22 22 22 21 20 20 20 20 20 21 21 21 21 21 21 21 21 21 22 22 22 22 22 23 23
27 26 26 25 25 26 26 26 27 26 26 25 25 25 25 25 24 24 24 23 23 22 22 22 21 21 21 21 22 23 23 23 23 23 23 23 23 23 23 23 24 24 24
29 29 28 27 26 27 27 28 28 28 28 27 27 27 27 27 26 26 25 25 25 25 24 24 24 24 24 24 24 25 25 25 26 25 25 25 25 24 24 25 25 25 26
30 29 29 29 28 28 29 29 30 29 29 29 29 29 29 28 28 29 28 27 27 27 27 27 27 27 26 26 27 27 27 28 28 28 28 27 27 27 27 27 27 27 27
32 31 31 31 30 30 30 31 31 31 30 30 30 30 30 30 30 29 29 29 29 29 29 29 29 29 29 29 29 29 30 30 30 30 30 30 29 29 30 30 30 29 29
33 33 33 33 32 32 32 32 31 31 31 31 31 31 31 30 30 30 31 31 31 32 31 30 30 31 31 31 31 31 31 31 32 31 31 32 32 32 32 32 31 31 31
33 33 33 33 33 32 32 32 32 32 32 32 32 32 32 32 32 32 33 33 33 32 32 32 32 33 32 32 32 32 32 32 32 32 32 32 32 32 32 33 33 32 32
33 32 33 33 33 33 33 32 33 33 33 33 34 34 34 34 34 34 34 33 33 34 33 33 33 33 33 33 33 34 34 33 32 32 33 33 33 34 33 33 33 33 33
32 32 32 33 33 33 33 34 35 35 34 35 34 34 35 35 35 35 35 34 35 35 34 34 34 34 34 34 34 35 36 36 34 33 33 34 34 34 34 34 33 32 33
33 33 33 34 33 33 34 35 35 35 35 35 35 35 36 36 36 35 35 35 36 36 35 35 36 36 36 36 36 36 36 36 35 34 34 34 34 35 34 33 33 33 34
34 33 34 34 33 33 34 34 35 35 35 34 34 35 36 35 35 36 35 36 35 36 36 36 36 35 36 36 35 35 35 35 35 34 33 32 32 32 32 32 33 34 35
34 34 34 34 34 34 34 34 34 34 34 34 35 35 35 35 35 35 34 35 35 36 36 36 36 35 34 34 34 34 33 34 33 32 32 33 33 33 33 33 33 34 35
34 33 33 33 32 33 33 33 33 33 34 34 34 34 34 35 34 34 34 34 34 34 34 34 34 33 33 34 33 33 32 33 32 32 32 32 33 34 34 34 34 35 36